     2.10           OBSERVATION DATA    M (MIXED)           RINEX VERSION / TYPE
teqc 2001Nov28 20030924 16:03:02UTC                         PGM / RUN BY / DATE
JOZ2                                                        MARKER NAME
12204M002                                                   MARKER NUMBER
Automatic IG&GA                                             OBSERVER / AGENCY
12127 ASHTECH Z18 0064                                      REC # / TYPE / VERS
4801 ASH701941.B SNOW                                       ANT # / TYPE
  3664905.4113  1409219.9755  5009617.5310                  APPROX POSITION XYZ
        0.0000        0.0000        0.0000                  ANTENNA: DELTA H/E/N
     1     1                                                WAVELENGTH FACT L1/2
     5    L1    L2    C1    P2    P1                        # / TYPES OF OBSERV
    30.0000                                                 INTERVAL
  2003     9    24    15     0    0.0000000     GPS         TIME OF FIRST OBS
    13                                                      LEAP SECONDS
                                                            END OF HEADER
 03  9 24 15  0  0.0000000  0 12G 5G18G23G 7G 9G28G26G29R17R 5R24R23
          .449 3          .690 2  21880514.539    21880518.975    21880514.539
          .202 3          .659 1  25107914.832    25107921.586
                                  25107914.832    24678198.464
          .291 3          .405 2  21981516.819    21981521.970    21981516.819
          .599 3          .265 2  19986114.829    19986118.434    19986114.829
          .514 3          .505 1  24878059.309    24878064.890    24878059.309
          .556 3          .239 2  23651254.081    23651260.807    23651254.081
          .658 3          .042 1  24955556.962    24955564.288    24955556.962
          .604 3          .541 2  21507908.348    21507913.848    21507908.348
          .979 2          .425 2  24048042.638    24048035.132    24048042.638
          .853 3          .463 2  19292325.370    19292328.464    19292325.370
          .833 3          .117 2  21707668.264    21707672.389    21707668.264
 03  9 24 15  0 30.0000000  0 12G 5G18G23G 7G 9G28G26G29R17R 5R24R23
    -80000.105 3    -62337.386 2  21865291.070    21865295.563    21865291.070
     86271.059 3     67224.612 1  25124331.987    25124335.965    25124331.987
          .227 3          .721 1  24684948.471    24684958.316    24684948.471
     50901.065 3     39663.326 2  21991202.577    21991207.986    21991202.577
      2132.846 3      1661.741 2  19986520.494    19986524.071    19986520.494
     98735.509 3     76936.807 1  24896849.730    24896853.651    24896849.730
    112563.054 3     87711.161 2  23672675.915    23672683.070    23672675.915
    114503.705 3     89222.884 1  24977348.112    24977353.492    24977348.112
   -117884.186 3    -91687.551 2  21485886.389    21485890.801    21485886.389
    107180.593 2     83362.301 2  24068084.218    24068080.437    24068084.218
     -9355.156 3     -7276.428 2  19290576.272    19290579.309    19290576.272
    106818.726 3     83080.664 2  21727582.129    21727587.801    21727582.129
 03  9 24 15  1  0.0000000  0 12G 5G18G23G 7G 9G28G26G29R17R 5R24R23
   -159721.031 3   -124457.567 2  21850120.813    21850124.963    21850120.813
    172718.431 3    134586.073 1  25140783.390    25140788.713    25140783.390
     35951.389 3     28101.292 1  24691796.557    24691798.560    24691796.557
    102240.023 3     79667.688 2  22000972.270    22000977.450    22000972.270
      4790.192 3      3732.406 2  19987026.161    19987029.652    19987026.161
    197505.139 3    153900.138 1  24915642.355    24915648.908    24915642.355
    225251.855 3    175520.478 2  23694119.742    23694125.666    23694119.742
    229010.776 3    178448.913 1  24999136.968    24999141.690    24999136.968
   -235382.665 3   -183075.170 2  21463937.355    21463941.366    21463937.355
    214635.001 2    166937.901 2  24088179.525    24088173.967    24088179.525
    -17926.855 3    -13943.308 2  19288973.623    19288977.060    19288973.623
    214032.245 3    166468.910 2  21747568.543    21747574.616    21747568.543
 03  9 24 15  1 30.0000000  0 13G 5G18G23G 7G 9G28G30G26G29R17R 5R24
                                R23
   -239163.637 3   -186360.882 2  21835003.125    21835007.074    21835003.125
    259337.062 3    202080.987 1  25157264.585    25157261.780    25157264.585
                                  24698722.957
    154013.183 3    120010.387 2  22010824.278    22010829.773    22010824.278
      7970.815 3      6210.809 2  19987631.363    19987634.969    19987631.363
    296306.390 3    230888.075 1  24934443.487    24934447.122    24934443.487
                                  24471378.898
    338062.234 3    263424.554 2  23715586.267    23715592.134    23715586.267
    343517.104 3    267674.391 1  25020925.871    25020936.403    25020925.871
   -352494.038 3   -274161.725 2  21442059.297    21442064.740    21442059.297
    322356.662 2    250721.383 2  24108324.801    24108320.905    24108324.801
    -25716.613 3    -20002.007 2  19287517.474    19287520.854    19287517.474
    321635.016 3    250159.927 2  21767626.059    21767630.643    21767626.059
 03  9 24 15  2  0.0000000  0 13G 5G18G23G 7G 9G28G30G26G29R17R 5R24
                                R23
   -318325.289 3   -248045.269 2  21819939.204    21819943.497    21819939.204
    346125.103 2    269707.928 1  25173776.644    25173785.344    25173776.644
    109212.590 3     85358.871 1  24705737.818    24705741.567    24705737.818
    206220.303 3    160691.235 2  22020759.528    22020764.193    22020759.528
     11676.496 3      9098.348 2  19988336.453    19988340.088    19988336.453
    395139.717 3    307900.923 1  24953253.734    24953259.085    24953253.734
          .485 3          .490 1  24451166.952    24451170.701    24451166.952
    450993.040 3    351422.462 2  23737076.452    23737080.831    23737076.452
    458021.965 3    356898.630 1  25042716.964    25042727.496    25042716.964
   -469213.996 3   -364943.840 2  21420254.506    21420260.007    21420254.506
    430343.410 2    334711.003 2  24128518.128    24128513.372    24128518.128
    -32723.701 3    -25451.973 2  19286207.760    19286211.141    19286207.760
    429624.890 3    334152.009 2  21787758.051    21787762.405    21787758.051
 03  9 24 15  2 30.0000000  0 13G 5G18G23G 7G 9G28G30G26G29R17R 5R24
                                R23
   -397202.677 3   -309508.150 2  21804929.485    21804933.806    21804929.485
    433082.148 3                  25190327.553                    25190327.553
                                  24712836.794
    258862.170 3    201710.833 2  22030776.885    22030781.578    22030776.885
     15909.850 3     12397.059 2  19989141.956    19989145.562    19989141.956
    494006.414 3    384939.899 1  24972063.102    24972070.457    24972063.102
   -106139.587 3    -82705.945 1  24430970.036    24430972.898    24430970.036
    564044.147 3    439514.140 2  23758589.155    23758596.109    23758589.155
    572525.263 3    446121.715 1  25064505.953    25064512.850    25064505.953
   -585536.382 3   -455416.742 2  21398525.054    21398530.554    21398525.054
    538593.992 2    418905.831 2  24148762.701    24148757.545    24148762.701
    -38946.083 3    -30291.597 2  19285044.554    19285047.706    19285044.554
    537999.847 3    418443.600 2  21807962.094    21807967.136    21807962.094
 03  9 24 15  3 30.0000000  0 13G 5G18G23G 7G 9G28G30G26G29R17R 5R24
                                R23
   -554093.482 3   -431760.700 2  21775074.134    21775078.398    21775074.134
    607496.619 3    473373.630 1  25223517.786    25223523.624    25223517.786
                                  24727296.627
    365449.258 3    284765.640 2  22051059.823    22051064.087    22051059.823
     25967.431 3     20234.117 2  19991056.087    19991059.464    19991056.087
    691842.301 3    539097.605 1  25009713.452    25009719.175    25009713.452
   -318152.491 3   -247910.541 1  24390624.211    24390630.249    24390624.211
    790503.314 3    615975.581 2  23801684.110    23801689.376    23801684.110
    801523.690 3    624561.450 1  25108081.891    25108090.906    25108081.891
   -816970.813 3   -635421.165 2  21355290.513    21355296.471    21355290.513
    755872.705 3    587900.240 2  24189393.595    24189388.496    24189393.595
    -49031.742 3    -38136.000 2  19283159.178    19283162.100    19283159.178
    755897.987 3    587919.850 2  21848581.429    21848587.845    21848581.429
 03  9 24 15  4  0.0000000  0 13G 5G18G23G 7G 9G28G30G26G29R17R 5R24
                                R23
   -632107.265 3   -492550.640 2  21760228.666    21760232.902    21760228.666
    694945.554 3    541515.524 1  25240159.163    25240164.257    25240159.163
                                  24734651.664
    419388.721 3    326796.368 2  22061324.395    22061328.574    22061324.395
     31789.990 3     24771.174 2  19992163.976    19992167.410    19992163.976
    790807.323 3    616213.253 1  25028546.259    25028550.638    25028546.259
   -424025.300 3   -330408.748 1  24370478.573    24370478.573    24370478.573
    903903.849 3    704339.494 2  23823262.734    23823267.971    23823262.734
    916011.813 3    713772.690 1  25129870.784    25129882.803    25129870.784
   -932077.785 3   -724948.747 2  21333787.467    21333792.853    21333787.467
    864890.328 2    672691.668 2  24209781.332    24209775.603    24209781.332
    -52898.442 3    -41143.436 2  19282436.207    19282439.358    19282436.207
    865411.006 3    673096.605 2  21868996.291    21869002.135    21868996.291
 03  9 24 15  4 30.0000000  0 13G 5G18G23G 7G 9G28G30G26G29R17R 5R24
                                R23
   -709838.485 3   -553120.403 2  21745437.015    21745441.107    21745437.015
    782544.669 3    609774.405 1  25256826.952    25256833.133    25256826.952
                                  24742092.806
    473749.605 3    369155.462 2  22071668.785    22071673.393    22071668.785
     38135.419 3     29715.666 2  19993371.500    19993375.020    19993371.500
    889795.637 3    693346.982 1  25047380.883    25047388.524    25047380.883
   -529814.391 3   -412841.682 1  24350346.142    24350352.495    24350346.142
   1017408.241 3    792784.366 2  23844863.302    23844868.081    23844863.302
   1030482.601 3    802970.404 1  25151654.032    25151663.676    25151654.032
  -1046781.632 3   -814162.788 2  21312360.434    21312365.190    21312360.434
    974147.285 3    757669.212 2  24230213.246    24230207.173    24230213.246
    -55988.855 3    -43547.082 2  19281858.553    19281861.761    19281858.553
    975288.350 3    758556.740 2  21889479.190    21889485.664    21889479.190
 03  9 24 15  5  0.0000000  0 13G 5G18G23G 7G 9G28G30G26G29R17R 5R24
                                R23
   -787280.839 3   -613465.080 2  21730700.149    21730703.669    21730700.149
    870296.467 3    678152.313 1  25273525.248    25273532.975    25273525.248
                                  24749620.205
    528535.815 3    411846.000 2  22082094.350    22082098.929    22082094.350
     45009.492 3     35072.078 2  19994679.527    19994683.133    19994679.527
    988811.723 3    770502.310 1  25066225.821    25066226.708    25066225.821
   -635513.015 3   -495204.174 2  24330230.926    24330238.396    24330230.926
   1131019.284 3    881312.320 2  23866482.642    23866487.793    23866482.642
   1144939.077 3    892157.000 1  25173436.267    25173439.529    25173436.267
  -1161072.935 3   -903055.972 2  21291010.334    21291016.006    21291010.334
   1083644.658 2    842833.760 2  24250692.333    24250685.687    24250692.333
    -58298.265 3    -45343.294 2  19281427.002    19281429.752    19281427.002
   1085531.280 3    844301.217 2  21910029.479    21910033.947    21910029.479
 03  9 24 15  5 30.0000000  0 13G 5G18G23G 7G 9G28G30G26G29R17R 5R24
                                R23
   -864431.967 3   -673582.833 2  21716018.577    21716022.612    21716018.577
    958198.877 3    746647.548 1  25290253.082    25290254.399    25290253.082
                                  24757231.144
    583746.581 3    454867.364 2  22092600.573    22092605.438    22092600.573
     52413.505 3     40841.425 2  19996088.531    19996092.108    19996088.531
   1087855.704 3    847679.534 1  25085069.105    25085077.347    25085069.105
   -741119.015 3   -577494.448 2  24310133.683    24310139.950    24310133.683
   1244735.634 3    969922.329 2  23888122.266    23888128.762    23888122.266
   1259380.130 3                  25195211.144                    25195211.144
  -1274948.157 3   -991625.533 2  21269736.585    21269742.085    21269736.585
   1193379.922 2    928183.375 2  24271209.986    24271204.600    24271209.986
    -59825.762 3    -46531.347 2  19281141.717    19281144.295    19281141.717
   1196137.720 3    930328.402 2  21930649.455    21930655.585    21930649.455
 03  9 24 15  6 30.0000000  0 12G18G23G 7G 9G28G30G26G29R17R 5R24R23
   1134432.752 3    883972.354 1  25323790.024    25323795.032    25323790.024
    461111.658 3    360284.537 1  24772701.468    24772708.508    24772701.468
    695423.707 3    541888.460 2  22113851.764    22113856.858    22113851.764
     68801.267 3     53611.094 2  19999206.842    19999210.477    19999206.842
   1286012.902 3   1002087.647 1  25122780.958    25122783.276    25122780.958
   -952059.680 3   -741863.650 1  24269995.144    24270003.158    24269995.144
   1472463.041 3   1147371.985 2  23931457.201    23931463.526    23931457.201
   1488195.196 3   1159628.450 1  25238752.987    25238764.034    25238752.987
  -1501447.276 3  -1167791.411 2  21227424.941    21227429.009    21227424.941
   1413532.957 2   1099413.423 2  24312383.733    24312377.546    24312383.733
    -60549.902 3    -47094.578 2  19281005.896    19281009.162    19281005.896
   1418413.864 3   1103209.807 2  21972086.073    21972091.172    21972086.073
 03  9 24 15  7 30.0000000  0 13G 5G18G23G 7G 9G28G30G26G29R17R 5R24
                                R23
  -1170130.655 3   -911789.512 2  21657845.721    21657850.243    21657845.721
   1311227.720 3   1021734.291 1  25357433.894    25357441.535    25357433.894
    544155.692 3    425104.498 1  24788504.435    24788508.070    24788504.435
    808772.815 3    630212.418 2  22135421.535    22135426.543    22135421.535
     87306.700 3     68030.905 2  20002728.791    20002732.225    20002728.791
   1484265.584 3   1156570.195 1  25160505.607    25160514.794    25160505.607
  -1162621.571 3   -905937.630 2  24229928.570    24229933.349    24229928.570
   1700576.184 3   1325122.202 2  23974864.080    23974872.408    23974864.080
   1716914.946 2   1337851.144 1  25282280.171    25282288.471    25282280.171
  -1726247.429 3  -1342635.823 2  21185430.121    21185434.934    21185430.121
   1634580.166 2   1271339.065 2  24353713.982    24353713.065    24353713.982
    -58161.186 3    -45236.688 2  19281452.662    19281455.355    19281452.662
   1642091.993 3   1277181.649 2  22013782.924    22013788.424    22013782.924
 03  9 24 15  8  0.0000000  0 13G 5G18G23G 7G 9G28G30G26G29R17R 5R24
                                R23
  -1245815.046 3   -970764.350 2  21643443.392    21643447.799    21643443.392
   1399832.720 3   1090777.045 1  25374297.346    25374299.578    25374297.346
    586333.335 3    458013.586 1  24796531.395    24796533.169    24796531.395
    866074.820 3    674863.317 2  22146325.715    22146331.410    22146325.715
     97359.125 3     75863.957 2  20004641.747    20004645.067    20004641.747
   1583430.563 3   1233841.540 1  25179374.242    25179382.541    25179374.242
  -1267752.527 3   -987857.771 2  24209918.627    24209925.667    24209918.627
   1814775.979 3   1414108.929 2  23996597.746    23996603.327    23996597.746
   1831238.200 2   1426933.959 1  25304033.674    25304061.176    25304033.674
  -1837997.043 3  -1429552.111 2  21164554.716    21164559.356    21164554.716
   1745433.139 2   1357558.089 2  24374448.163    24374441.459    24374448.163
    -55796.307 3    -43397.349 2  19281895.143    19281897.721    19281895.143
   1754452.359 3   1364573.024 2  22034728.791    22034734.463    22034728.791
 03  9 24 15  9  0.0000000  0 13G 5G18G23G 7G 9G28G30G26G29R17R 5R24
                                R23
  -1396303.483 3  -1088028.026 2  21614806.506    21614810.770    21614806.506
   1577423.967 3   1229159.470 1  25408089.520    25408097.075    25408089.520
                                  24812826.950
    981905.185 3    765120.709 2  22168367.743    22168372.609    22168367.743
    119044.596 3     92761.715 2  20008768.245    20008771.651    20008768.245
   1781813.654 3   1388425.769 1  25217128.966    25217134.805    25217128.966
  -1477727.947 3  -1151474.777 2  24169962.467    24169967.761    24169962.467
   2043429.943 3   1592280.584 2  24040108.133    24040115.459    24040108.133
   2059781.247 3                  25347524.191                    25347524.191
  -2060200.281 3  -1602376.699 2  21123044.797    21123049.609    21123044.797
   1967755.302 2   1530475.123 2  24416021.922    24416014.703    24416021.922
    -48750.300 3    -37917.132 2  19283212.076    19283214.826    19283212.076
   1980177.612 3   1540137.044 2  22076806.139    22076811.123    22076806.139
 03  9 24 15  9 30.0000000  0 13G 5G18G23G 7G 9G28G30G26G29R17R 5R24
                                R23
  -1471103.834 3  -1146313.988 2  21600572.399    21600576.835    21600572.399
   1666405.419 3   1298495.539 1  25425021.657    25425025.835    25425021.657
                                  24821095.103
   1040431.646 3    810725.720 2  22179504.897    22179509.591    22179504.897
    130679.523 3    101827.881 2  20010982.297    20010985.760    20010982.297
   1881031.514 3   1465738.351 1  25236009.003    25236011.264    25236009.003
  -1582568.612 3  -1233168.766 2  24150011.098    24150015.219    24150011.098
   2157880.711 3   1681462.869 2  24061888.426    24061895.667    24061888.426
   2173997.880 2   1694018.678 1  25369258.299    25369278.417    25369258.299
  -2170647.000 3  -1688279.612 2  21102411.446    21102417.691    21102411.446
   2079217.015 2   1617167.534 2  24436868.464    24436861.761    24436868.464
    -44068.895 3    -34276.048 2  19284087.217    19284089.852    19284087.217
   2093537.258 3   1628305.632 2  22097939.750    22097945.938    22097939.750
 03  9 24 15 10  0.0000000  0 12G 5G18G23G 7G 9G28G30G26G29R17R24R23
  -1545606.177 3  -1204367.743 2  21586395.141    21586399.176    21586395.141
   1755507.427 3                  25441979.504                    25441979.504
    759310.025 3    593122.325 1  24829447.949    24829447.549    24829447.949
   1099363.775 3    856646.842 2  22190718.916    22190723.981    22190718.916
    142843.650 3    111306.414 2  20013297.008    20013300.528    20013297.008
   1980266.412 3   1543064.312 1  25254890.643    25254897.568    25254890.643
  -1687308.983 3  -1314784.501 2  24130080.388    24130085.024    24130080.388
   2272411.305 3   1770707.321 2  24083683.776    24083688.069    24083683.776
   2288175.302 3   1782987.808 1  25390985.958    25390995.059    25390985.958
  -2280651.659 3  -1773838.707 2  21081862.189    21081866.945    21081862.189
    -38616.134 3    -30035.017 2  19285106.533    19285109.684    19285106.533
   2207224.038 3   1716728.655 2  22119131.724    22119136.021    22119131.724
 03  9 24 15 10 30.0000000  0  9G 5G18G23G 7G 9G28R17R24R23
  -1619809.284 3  -1262188.312 2  21572274.943    21572278.950    21572274.943
   1844727.441 2                  25458956.702                    25458956.702
                                  24837876.753
   1158700.033 3    902882.868 2  22202010.253    22202015.261    22202010.253
    155537.411 3    121197.652 2  20015712.503    20015715.851    20015712.503
   2079517.894 3   1620403.099 1  25273779.572    25273782.892    25273779.572
  -2390211.439 3  -1859051.785 2  21061395.624    21061400.436    21061395.624
    -32392.786 3    -25194.630 2  19286269.861    19286273.127    19286269.861
   2321234.006 3   1805403.043 2  22140386.670    22140391.139    22140386.670
 03  9 24 15 11  0.0000000  0 12G 5G18G23G 7G 9G28G30G26G29R17R24R23
  -1693710.607 3  -1319773.741 2  21558211.794    21558216.172    21558211.794
                                  25475955.076
    848340.143 3    662650.009 1  24846389.041    24846393.220    24846389.041
   1218439.851 3    949433.367 2  22213378.542    22213383.236    22213378.542
    168762.170 3    131502.658 2  20018229.165    20018232.399    20018229.165
   2178786.217 3   1697755.028 1  25292669.153    25292670.841    25292669.153
  -1896482.288 3  -1477776.560 1  24090277.306    24090282.630    24090277.306
   2501704.208 3   1949376.856 2  24127314.460    24127320.327    24127314.460
   2516405.887 3                  25434418.111                    25434418.111
  -2499321.630 3  -1943915.185 2  21041012.849    21041017.317    21041012.849
    -25397.585 3    -19753.923 2  19287577.616    19287580.136    19287577.616
   2435564.585 3   1894326.807 2  22161699.724    22161705.224    22161699.724
 03  9 24 15 11 30.0000000  0 12G 5G18G23G 7G 9G28G30G26G29R17R24R23
  -1767312.839 3  -1377126.110 2  21544205.340    21544209.518    21544205.340
                                  25492977.765
    893482.329 3    697904.928 1  24854974.622    24854982.119    24854974.622
   1278577.880 3    996294.162 2  22224822.905    22224827.913    22224822.905
    182514.392 3    142218.674 2  20020846.028    20020849.291    20020846.028
   2278067.063 3   1775116.764 1  25311562.159    25311565.107    25311562.159
  -2000915.326 3  -1559152.844 1  24070401.294    24070411.940    24070401.294
   2616459.117 3   2038796.136 2  24149152.497    24149159.909    24149152.497
   2630452.548 2   2049696.828 1  25456119.099    25456125.338    25456119.099
  -2607982.880 3  -2028429.416 2  21020713.938    21020719.094    21020713.938
    -17636.632 3    -13717.619 2  19289028.404    19289031.097    19289028.404
   2550209.239 3   1983494.858 2  22183070.450    22183074.288    22183070.450
 03  9 24 15 12  0.0000000  0 12G 5G18G23G 7G 9G28G30G26G29R17R24R23
  -1840608.008 3  -1434239.200 2  21530257.629    21530261.979    21530257.629
                                  25510020.594
    939045.755 3    733460.894 1  24863646.382    24863652.764    24863646.382
   1339119.105 3   1043469.120 2  22236343.371    22236347.835    22236343.371
    196801.015 3    153351.103 2  20023564.744    20023568.179    20023564.744
   2377366.577 3   1852493.018 1  25330457.249    25330463.516    25330457.249
  -2105238.488 3  -1640443.502 1  24050551.175    24050556.183    24050551.175
   2731288.710 3   2128273.571 2  24171003.778    24171009.130    24171003.778
   2744456.051 2   2138530.494 1  25477813.817    25477817.737    25477813.817
  -2716184.252 3  -2112585.955 2  21000501.131    21000505.943    21000501.131
     -9103.231 3     -7080.534 2  19290623.555    19290626.706    19290623.555
   2665170.718 3   2072909.304 2  22204500.733    22204505.602    22204500.733
 03  9 24 15 12 30.0000000  0 12G 5G18G23G 7G 9G28G30G26G29R17R24R23
  -1913602.266 3  -1491117.826 2  21516367.454    21516371.575    21516367.454
                                  25527082.332
                                  24872398.112
   1400054.591 3   1090951.305 2  22247938.656    22247943.320    22247938.656
    211614.979 3    164894.448 2  20026383.752    20026387.272    20026383.752
   2476676.412 3   1929877.264 1  25349356.891    25349360.268    25349356.891
  -2209458.197 3  -1721653.591 1  24030719.677    24030725.000    24030719.677
   2846183.316 3   2217801.702 2  24192868.703    24192874.656    24192868.703
   2858407.191 2   2227323.447 1  25499496.033    25499502.759    25499496.033
  -2823931.753 3  -2196389.486 2  20980372.869    20980378.025    20980372.869
       193.622 3       150.347 2  19292361.331    19292364.253    19292361.331
   2780438.103 3   2162561.685 2  22225989.088    22225992.869    22225989.088
 03  9 24 15 13  0.0000000  0 12G 5G18G23G 7G 9G28G30G26G29R17R24R23
  -1986289.096 3  -1547756.891 2  21502535.635    21502539.698    21502535.635
                                  25544164.894
                                  24881225.553
   1461387.827 3   1138743.422 2  22259610.228    22259615.036    22259610.228
    226961.683 3    176852.917 2  20029303.990    20029307.596    20029303.990
   2576001.398 3   2007273.346 1  25368254.994    25368260.346    25368254.994
  -2313567.500 3  -1802777.639 1  24010908.252    24010911.600    24010908.252
   2961145.953 3   2307382.837 2  24214746.066    24214751.189    24214746.066
   2972309.698 3   2316078.460 1  25521173.819    25521186.812    25521173.819
  -2931216.350 3  -2279832.994 2  20960331.039    20960335.966    20960331.039
     10258.764 3      7978.799 2  19294242.640    19294245.905    19294242.640
   2896013.105 3   2252453.343 2  22247534.420    22247540.321    22247534.420
 03  9 24 15 13 30.0000000  0 11G18G23G 7G 9G28G30G26G29R17R24R23
                                  25561264.957
                                  24890127.796
   1523106.771 3   1186836.082 2  22271354.538    22271359.346    22271354.538
    242831.042 3    189218.645 2  20032324.056    20032327.605    20032324.056
   2675330.409 3   2084672.533 1  25387158.467    25387162.874    25387158.467
  -2417575.421 3  -1883822.707 2  23991116.868    23991121.934    23991116.868
   3076163.851 3   2397007.018 2  24236631.052    24236638.149    24236631.052
   3086150.617 2   2404785.530 1  25542837.650    25542847.094    25542837.650
  -3038044.590 3  -2362921.563 2  20940374.702    20940379.572    20940374.702
     21080.263 3     16395.516 2  19296265.812    19296268.906    19296265.812
   3011882.508 3   2342573.961 2  22269133.465    22269138.163    22269133.465
 03  9 24 15 14  0.0000000  0 11G18G23G 7G 9G28G30G26G29R17R24R23
                                  25578387.134
                                  24899111.193
   1585222.059 3   1235237.595 2  22283174.912    22283179.920    22283174.912
    259235.810 3    202001.581 2  20035445.818    20035449.252    20035445.818
   2774675.358 3   2162084.266 1  25406059.439    25406070.915    25406059.439
  -2521468.507 3  -1964778.283 2  23971344.702    23971349.510    23971344.702
   3191247.051 3   2486682.100 2  24258532.473    24258537.767    24258532.473
   3199940.563 2   2493452.883 1  25564490.691    25564509.464    25564490.691
  -3144401.209 3  -2445643.316 2  20920506.238    20920510.706    20920506.238
     32670.058 3     25409.801 2  19298432.752    19298435.674    19298432.752
   3128054.678 3   2432930.075 2  22290789.485    22290794.297    22290789.485
 03  9 24 15 14 30.0000000  0 11G 5G18G23G 7G 9G28G30G26R17R24R23
  -2202520.939 3  -1716249.162 2  21461388.087    21461392.695    21461388.087
                                  25595524.662
                                  24908174.724
   1647729.675 3   1283944.812 2  22295069.299    22295074.679    22295069.299
    276173.560 3    215199.831 2  20038668.870    20038672.304    20038668.870
   2874033.125 3   2239505.884 1  25424971.573    25424981.675    25424971.573
  -2625247.756 3  -2045645.133 2  23951598.509    23951599.940    23951598.509
   3306390.750 3   2576404.316 2  24280442.886    24280449.841    24280442.886
  -3250286.198 3  -2527998.248 2  20900725.994    20900730.692    20900725.994
     45024.293 3     35018.655 2  19300742.363    19300745.056    19300742.363
   3244523.974 3   2523517.276 2  22312501.144    22312506.472    22312501.144
 03  9 24 15 15  0.0000000  0 12G 5G18G23G 7G 9G28G30G26G29R17R24R23
  -2273979.545 3  -1771931.168 2  21447789.900    21447794.336    21447789.900
                                  25612678.712
                                  24917312.438
   1710623.721 3   1332953.145 2  22307038.645    22307042.794    22307038.645
    293640.252 3    228810.239 2  20041992.580    20041996.072    20041992.580
   2973398.752 2   2316933.650 1  25443878.769    25443887.956    25443878.769
  -2728915.903 3  -2126425.425 2  23931868.752    23931873.503    23931868.752
   3421588.724 3   2666168.826 2  24302363.524    24302373.254    24302363.524
                                  25607765.289
  -3355701.426 3  -2609987.817 2  20881033.275    20881038.260    20881033.275
     58137.643 3     45217.924 2  19303193.282    19303196.433    19303193.282
   3361282.775 3   2614329.654 2  22334267.829    22334274.188    22334267.829
 03  9 24 15 15 30.0000000  0 11G 5G18G23G 7G 9G28G30G26R17R24R23
  -2345131.039 3  -1827373.866 2  21434249.737    21434254.230    21434249.737
                                  25629849.939
   1269474.986 3    991302.812 1  24926525.347    24926529.811    24926525.347
   1773900.754 3   1382259.913 2  22319079.731    22319084.596    22319079.731
    311634.624 3    242831.821 2  20045416.699    20045420.219    20045416.699
   3072770.035 3   2394365.786 1  25462787.383    25462798.630    25462787.383
  -2832473.358 3  -2207119.407 2  23912163.309    23912168.403    23912163.309
   3536836.879 3   2755972.424 2  24324296.761    24324302.027    24324296.761
  -3460642.722 3  -2691608.763 2  20861429.737    20861434.435    20861429.737
     72007.610 3     56005.677 2  19305786.403    19305789.210    19305786.403
   3478325.601 3   2705362.957 2  22356087.749    22356092.791    22356087.749
 03  9 24 15 16  0.0000000  0 11G 5G18G23G 7G 9G28G30G26R17R24R23
  -2415975.321 3  -1882577.193 2  21420768.949    21420773.385    21420768.949
                                  25647036.993
   1318293.410 3   1029380.503 1  24935815.125    24935824.540    24935815.125
   1837557.946 3   1431862.906 2  22331192.960    22331198.254    22331192.960
    330155.589 3    257263.738 2  20048941.234    20048944.582    20048941.234
   3172145.587 3                  25481694.682                    25481694.682
  -2935919.873 3  -2287727.028 2  23892478.233    23892482.755    23892478.233
   3652131.793 3   2845812.463 2  24346234.965    24346242.034    24346234.965
  -3565109.547 3  -2772860.685 2  20841914.011    20841919.626    20841914.011
     86631.513 3     67379.824 2  19308519.949    19308522.871    19308519.949
   3595647.792 3   2796613.538 2  22377957.487    22377961.842    22377957.487
 03  9 24 15 16 30.0000000  0 10G 5G23G 7G 9G28G30G26R17R24R23
  -2486505.085 3  -1937535.425 2  21407347.587    21407351.622    21407347.587
   1367512.814 3   1067766.348 1  24945182.586    24945188.367    24945182.586
   1901599.702 3   1481765.556 2  22343379.855    22343384.864    22343379.855
    349209.421 3    272110.877 2  20052567.218    20052570.566    20052567.218
   3271530.259 2                  25500610.206                    25500610.206
  -3039248.189 3  -2368242.478 2  23872816.346    23872821.669    23872816.346
   3767477.182 3   2935691.823 2  24368185.404    24368191.586    24368185.404
  -3669092.411 3  -2853736.188 2  20822489.732    20822494.545    20822489.732
    102014.379 3     79344.281 2  19311395.723    19311398.588    19311395.723
   3713252.070 3   2888083.514 2  22399880.318    22399885.016    22399880.318
 03  9 24 15 17  0.0000000  0 10G 5G23G 7G 9G28G30G26R17R24R23
  -2556721.540 3  -1992249.520 2  21393985.931    21393989.938    21393985.931
                                  24954626.112
   1966021.745 3   1531964.521 2  22355639.057    22355643.865    22355639.057
    368793.746 3    287371.377 2  20056294.118    20056297.151    20056294.118
                                  25519523.243
  -3142459.300 3  -2448666.613 2  23853172.849    23853178.945    23853172.849
   3882868.368 3   3025606.850 2  24390143.410    24390151.738    24390143.410
  -3772591.392 3  -2934235.323 2  20803155.111    20803159.809    20803155.111
    118152.235 3     91895.952 2  19314412.443    19314415.708    19314412.443
   3831133.017 3   2979768.678 2  22421856.511    22421861.954    22421856.511
 03  9 24 15 17 30.0000000  0  9G 5G23G 7G 9G30G26R17R24R23
  -2626624.079 3  -2046719.009 2  21380683.955    21380688.076    21380683.955
                                  24964142.110
   2030821.821 3   1582458.087 2  22367970.306    22367974.742    22367970.306
    388908.197 3    303044.980 2  20060121.831    20060125.093    20060121.831
  -3245552.341 3  -2528998.757 1  23833554.674    23833561.171    23833554.674
   3998302.525 3   3115555.405 2  24412110.800    24412116.609    24412110.800
  -3875603.351 3  -3014355.670 2  20783911.277    20783916.147    20783911.277
    135043.669 3    105033.738 2  19317570.258    19317573.065    19317570.258
   3949286.895 3   3071666.129 2  22443881.621    22443886.205    22443881.621
 03  9 24 15 18  0.0000000  0 10G 5G23G 7G 9G28G30G26R17R24R23
  -2696214.352 3  -2100945.168 2  21367441.358    21367445.565    21367441.358
                                  24973729.633
   2095995.454 3   1633242.724 2  22380372.762    22380377.570    22380372.762
    409550.028 3    319129.525 2  20064049.758    20064053.021    20064049.758
                                  25557353.513
  -3348528.865 3  -2609240.095 2  23813960.832    23813965.010    23813960.832
   4113774.451 3   3205533.368 2  24434083.169    24434091.097    24434083.169
  -3978128.292 3  -3094097.214 2  20764758.623    20764763.149    20764758.623
    152684.372 3    118754.286 2  19320868.058    19320870.980    19320868.058
   4067706.557 3   3163770.317 2  22465957.686    22465962.900    22465957.686
 03  9 24 15 18 30.0000000  0  9G 5G23G 7G 9G30G26R17R24R23
  -2765490.541 3  -2154926.605 2  21354258.556    21354262.706    21354258.556
   1568328.534 3   1224533.151 1  24983397.216    24983399.849    24983397.216
   2161541.441 3   1684317.494 2  22392844.688    22392850.097    22392844.688
    430719.793 3    335625.435 2  20068078.046    20068081.480    20068078.046
  -3451386.849 3  -2689389.094 2  23794387.221    23794391.571    23794387.221
   4229282.621 3   3295539.553 2  24456064.862    24456073.533    24456064.862
  -4080162.136 3  -3173456.812 2  20745697.293    20745702.163    20745697.293
    171073.494 3    133056.937 2  19324305.558    19324308.423    19324305.558
   4186390.224 3   3256079.822 2  22488082.131    22488086.944    22488082.131
 03  9 24 15 19  0.0000000  0 10G 5G23G 7G 9G28G30G26R17R24R23
  -2834446.333 3  -2208658.361 2  21341136.699    21341140.734    21341136.699
                                  24993133.071
   2227463.166 3   1735685.066 2  22405390.019    22405395.056    22405390.019
    452422.664 3    352536.765 2  20072207.835    20072211.298    20072207.835
                                  25595186.537
  -3554119.928 3  -2769440.793 2  23774837.993    23774843.002    23774837.993
   4344829.916 3   3385576.253 2  24478052.942    24478059.152    24478052.942
  -4181697.644 3  -3252428.815 2  20726730.518    20726734.987    20726730.518
    190214.968 3    147944.754 2  19327883.840    19327886.647    19327883.840
   4305338.845 3   3348595.402 2  22510255.018    22510258.685    22510255.018
 03  9 24 15 19 30.0000000  0 10G 5G23G 7G 9G28G30G26R17R24R23
  -2903089.218 3  -2262146.311 2  21328074.267    21328078.359    21328074.267
   1671069.237 3   1304664.669 1  25002947.597    25002948.913    25002947.597
   2293750.247 3   1787337.324 2  22418003.402    22418008.754    22418003.402
    474650.257 3    369856.965 2  20076437.649    20076441.084    20076437.649
                                  25614102.937
  -3656735.357 3  -2849400.774 2  23755309.271    23755313.450    23755309.271
   4460405.352 3   3475634.896 2  24500044.627    24500050.895    24500044.627
  -4282739.815 3  -3331017.102 2  20707854.066    20707859.623    20707854.066
    210098.414 3    163409.656 2  19331600.966    19331603.888    19331600.966
   4424540.741 3   3441307.973 2  22532477.155    22532482.884    22532477.155
 03  9 24 15 20  0.0000000  0 11G 5G14G23G 7G 9G28G30G26R17R24R23
  -2971415.342 3  -2315387.411 2  21315072.182    21315076.532    21315072.182
          .472 3          .495 2  23812052.322    23812057.244    23812052.322
                                  25012830.662
   2360403.673 3   1839275.038 2  22430687.354    22430692.448    22430687.354
    497405.356 3    387588.213 2  20080767.835    20080771.241    20080767.835
                                  25633018.023
  -3759229.178 3  -2929266.062 2  23735807.072    23735811.537    23735807.072
   4576009.347 3   3565715.751 2  24522043.582    24522052.053    24522043.582
  -4383282.806 3  -3409217.129 2  20689072.124    20689077.338    20689072.124
    230725.345 3    179452.827 2  19335456.911    19335460.177    19335456.911
   4543995.498 3   3534217.227 2  22554744.948    22554749.016    22554744.948
 03  9 24 15 20 30.0000000  0 11G 5G14G23G 7G 9G28G30G26R17R24R23
  -3039415.939 3  -2368374.879 2  21302132.311    21302136.690    21302132.311
    -77431.254 3    -60335.853 2  23797318.852    23797322.430    23797318.852
                                  25022787.691
   2427429.197 3   1891502.711 2  22443441.213    22443447.223    22443441.213
    520695.351 3    405736.255 2  20085199.808    20085203.414    20085199.808
                                  25651938.278
  -3861592.301 3  -3009029.469 2  23716326.930    23716332.424    23716326.930
   4691647.179 3   3655823.011 2  24544050.039    24544057.136    24544050.039
  -4483316.677 3  -3487021.190 2  20670384.718    20670389.875    20670384.718
    252101.869 3    196079.020 2  19339452.958    19339456.052    19339452.958
   4663706.638 3   3627325.883 2  22577061.006    22577065.188    22577061.006
 03  9 24 15 21  0.0000000  0 11G 5G14G23G 7G 9G28G30G26R17R24R23
  -3107096.591 3  -2421113.019 2  21289252.956    21289257.249    21289252.956
   -154442.414 3   -120344.549 2  23782664.182    23782667.016    23782664.182
                                  25032819.602
   2494818.317 3   1944013.696 2  22456265.703    22456270.854    22456265.703
    544513.516 3    424295.863 2  20089732.307    20089735.656    20089732.307
   4166158.320 2   3246357.252 1  25670852.997    25670869.767    25670852.997
  -3963830.174 3  -3088695.307 2  23696872.468    23696877.248    23696872.468
   4807309.862 3   3745949.578 2  24566058.908    24566067.580    24566058.908
  -4582844.496 3  -3564431.639 2  20651792.022    20651796.032    20651792.022
    274219.793 3    213281.855 2  19343587.821    19343590.857    19343587.821
   4783664.896 3   3720626.760 2  22599423.866    22599429.939    22599423.866
 03  9 24 15 21 30.0000000  0 11G 5G14G23G 7G 9G28G30G26R17R24R23
  -3174462.346 3  -2473605.799 2  21276433.521    21276437.670    21276433.521
   -231036.349 3   -180028.106 2  23768087.854    23768091.774    23768087.854
                                  25042921.855
   2562563.083 3   1996801.799 2  22469156.758    22469162.110    22469156.758
    568853.778 3    443262.296 2  20094364.095    20094367.530    20094364.095
   4265563.172 3                  25689771.066                    25689771.066
  -4065947.739 3  -3168267.330 2  23677439.058    23677444.553    23677439.058
   4922988.965 3   3836088.983 2  24588072.719    24588080.159    24588072.719
  -4681869.536 3  -3641451.046 2  20633293.617    20633298.028    20633293.617
    297071.035 3    231055.038 2  19347859.934    19347862.455    19347859.934
   4903859.939 3   3814111.795 2  22621829.821    22621836.066    22621829.821
 03  9 24 15 22  0.0000000  0 10G 5G14G23G 7G 9G30G26R17R24R23
  -3241503.089 3  -2525845.320 2  21263676.089    21263680.239    21263676.089
   -307201.603 3   -239377.614 2  23753593.326    23753597.161    23753593.326
                                  25053090.642
   2630670.568 3   2049872.547 2  22482117.238    22482122.589    22482117.238
    593724.895 3    462642.379 2  20099096.963    20099100.454    20099096.963
  -4167934.796 3  -3247737.699 2  23658031.091    23658039.848    23658031.091
   5038691.070 3   3926246.258 2  24610089.875    24610097.717    24610089.875
  -4780380.170 3  -3718070.353 2  20614890.741    20614895.439    20614890.741
    320663.226 3    249404.523 2  19352270.089    19352272.724    19352270.089
   5024297.620 3   3907785.547 2  22644281.724    22644287.453    22644281.724
 03  9 24 15 22 30.0000000  0 10G 5G14G23G 7G 9G30G26R17R24R23
  -3308225.022 3  -2577836.414 2  21250979.391    21250983.569    21250979.391
   -382942.573 3   -298396.520 2  23739181.898    23739182.843    23739181.898
   1988402.513 3   1552165.216 1  25063338.096    25063345.194    25063338.096
   2699131.869 3   2103218.990 2  22495145.192    22495150.830    22495145.192
    619119.546 3    482430.415 2  20103929.448    20103932.853    20103929.448
  -4269797.103 3  -3327110.817 2  23638648.980    23638654.504    23638648.980
   5154406.790 3   4016414.256 2  24632109.242    24632117.427    24632109.242
  -4878380.202 3  -3794292.533 2  20596583.254    20596587.379    20596583.254
    344987.500 3    268323.401 2  19356817.131    19356819.938    19356817.131
   5144967.511 3   4001639.913 2  22666776.630    22666781.729    22666776.630
 03  9 24 15 23  0.0000000  0 10G 5G14G23G 7G 9G30G26R17R24R23
  -3374621.945 3  -2629574.269 2  21238344.564    21238348.685    21238344.564
   -458251.875 3   -357079.092 2  23724850.373    23724855.009    23724850.373
   2042595.259 3   1594427.577 1  25073646.125    25073654.310    25073646.125
   2767949.945 3   2156843.445 2  22508241.226    22508245.748    22508241.226
    645042.665 3    502630.246 2  20108862.569    20108865.832    20108862.569
  -4371528.404 3  -3406381.894 2  23619288.339    23619293.490    23619288.339
   5270138.829 3   4106594.862 2  24654134.309    24654141.922    24654134.309
  -4975863.481 3  -3870112.806 2  20578373.422    20578377.031    20578373.422
    370047.012 3    287814.132 2  19361501.443    19361504.423    19361501.443
   5265871.646 3   4095676.467 2  22689313.846    22689318.201    22689313.846
 03  9 24 15 23 30.0000000  0 10G 5G14G23G 7G 9G30G26R17R24R23
  -3440697.375 3  -2681061.595 2  21225770.951    21225775.100    21225770.951
   -533131.211 3   -415426.560 2  23710600.677    23710605.141    23710600.677
                                  25084030.341
   2837118.373 3   2210740.919 2  22521403.089    22521407.668    22521403.089
    671489.584 3    523238.235 2  20113895.236    20113898.441    20113895.236
  -4473132.142 3  -3485553.570 2  23599956.561    23599959.823    23599956.561
   5385879.998 3   4196782.661 2  24676159.845    24676166.714    24676159.845
  -5072830.742 3  -3945531.721 2  20560258.719    20560262.959    20560258.719
    395835.478 3    307871.822 2  19366322.557    19366325.422    19366322.557
   5387001.423 3   4189888.525 2  22711895.752    22711900.393    22711895.752
 03  9 24 15 24  0.0000000  0 10G 5G14G23G 7G 9G30G26R17R24R23
  -3506446.361 3  -2732294.549 2  21213259.018    21213263.282    21213259.018
   -607574.006 3   -473433.906 2  23696435.786    23696437.704    23696435.786
                                  25094481.320
   2906639.376 3   2264913.108 2  22534632.197    22534637.463    22534632.197
    698464.102 3    544257.338 2  20119028.144    20119031.607    20119028.144
  -4574603.012 3  -3564621.696 2  23580642.976    23580649.559    23580642.976
   5501632.198 3   4286978.961 2  24698183.136    24698190.805    24698183.136
  -5169275.651 3  -4020544.365 2  20542241.931    20542246.113    20542241.931
    422355.105 3    328498.193 2  19371280.277    19371283.142    19371280.277
   5508357.691 3   4284276.732 2  22734518.749    22734524.020    22734518.749
 03  9 24 15 24 30.0000000  0 10G 5G14G23G 7G 9G30G26R17R24R23
  -3571864.913 3  -2783270.028 2  21200810.387    21200814.679    21200810.387
   -681575.010 3   -531097.014 2  23682353.876    23682356.309    23682353.876
   2207361.590 3   1722874.442 1  25104998.467    25105005.937    25104998.467
   2976513.813 3   2319360.716 2  22547929.527    22547935.021    22547929.527
    725968.783 3    565689.555 2  20124262.030    20124265.578    20124262.030
  -4675936.928 3  -3643583.137 2  23561363.445    23561365.105    23561363.445
   5617395.917 3   4377184.288 1  24720213.944    24720221.185    24720213.944
  -5265191.497 3  -4095145.514 2  20524323.960    20524328.314    20524323.960
    449607.003 3    349694.112 2  19376374.534    19376377.685    19376374.534
   5629939.635 3   4378840.480 2  22757183.134    22757186.343    22757183.134
 03  9 24 15 25  0.0000000  0 11G 5G14G23G 7G 9G 4G30G26R17R24R23
  -3636956.351 3  -2833990.598 2  21188423.886    21188428.036    21188423.886
   -755135.739 3   -588417.014 2  23668355.583    23668360.563    23668355.583
                                  25115590.550
   3046735.438 3   2374078.847 2  22561291.941    22561296.463    22561291.941
    753999.168 3    587531.409 2  20129595.991    20129599.539    20129595.991
          .932 3          .980 2  23732948.288    23732956.044    23732948.288
  -4777136.953 3  -3722440.179 2  23542104.157    23542109.909    23542104.157
   5733164.445 3   4467393.404 2  24742246.867    24742255.109    24742246.867
  -5360580.812 3  -4169337.153 2  20506504.332    20506508.915    20506504.332
    477585.224 3    371454.948 2  19381604.706    19381607.857    19381604.706
   5751740.171 3   4473574.247 2  22779887.981    22779891.992    22779887.981
 03  9 24 15 25 30.0000000  0 11G 5G14G23G 7G 9G 4G30G26R17R24R23
  -3701718.123 3  -2884454.297 2  21176100.284    21176104.091    21176100.284
   -828252.456 3   -645391.031 2  23654442.080    23654446.258    23654442.080
                                  25126247.788
   3117304.030 3   2429067.354 2  22574720.572    22574725.495    22574720.572
    782556.489 3    609783.860 2  20135030.244    20135033.792    20135030.244
    -75040.780 3    -58472.944 2  23718668.069    23718676.225    23718668.069
  -4878200.314 3  -3801190.827 2  23522874.303    23522874.561    23522874.303
   5848937.064 3   4557605.628 2  24764275.932    24764283.430    24764275.932
  -5455439.266 3  -4243115.888 2  20488783.933    20488788.230    20488783.933
    506289.310 3    393780.352 2  19386970.544    19386973.637    19386970.544
   5873757.041 3   4568476.255 2  22802635.231    22802640.330    22802635.231
 03  9 24 15 26  0.0000000  0 11G 5G14G23G 7G 9G 4G30G26R17R24R23
  -3766155.694 3  -2934665.381 2  21163838.425    21163842.232    21163838.425
   -900929.011 3   -702022.098 2  23640612.330    23640613.990    23640612.330
   2375372.901 3   1853895.488 1  25136976.538    25136976.538    25136976.538
   3188211.032 3   2484319.555 2  22588213.986    22588218.680    22588213.986
    811634.156 3    632441.774 2  20140563.766    20140567.143    20140563.766
   -149727.222 3   -116670.048 2  23704457.329    23704462.881    23704457.329
  -4979132.187 3  -3879838.950 2  23503664.717    23503671.041    23503664.717
   5964705.075 3   4647814.304 1  24786308.830    24786315.899    24786308.830
  -5549769.995 3  -4316484.185 2  20471161.764    20471166.462    20471161.764
    535710.420 3    416663.433 2  19392470.742    19392473.378    19392470.742
   5995980.509 3   4663538.952 2  22825419.475    22825424.460    22825419.475
 03  9 24 15 26 30.0000000  0 11G 5G14G23G 7G 9G 4G30G26R17R24R23
  -3830263.737 3  -2984619.690 2  21151638.829    21151642.664    21151638.829
   -973158.329 3   -758304.663 2  23626867.136    23626870.999    23626867.136
                                  25147764.427
   3259458.809 3   2539837.289 2  22601771.946    22601776.955    22601771.946
    841236.097 3    655508.219 2  20146196.974    20146200.065    20146196.974
   -224051.395 3   -174584.913 2  23690312.289    23690317.955    23690312.289
  -5079927.154 3  -3958380.384 2  23484485.747    23484488.180    23484485.747
   6080469.914 3   4738020.549 2  24808336.135    24808343.433    24808336.135
  -5643566.519 3  -4389436.994 2  20453640.415    20453644.827    20453640.415
    565851.451 3    440106.449 2  19398105.183    19398107.991    19398105.183
   6118410.991 3   4758762.665 2  22848241.152    22848245.220    22848241.152
 03  9 24 15 27  0.0000000  0 11G 5G14G23G 7G 9G 4G30G26R17R24R23
  -3894037.747 3  -3034313.707 2  21139503.114    21139506.948    21139503.114
  -1044934.567 3   -814234.112 2  23613207.908    23613211.714    23613207.908
                                  25158625.476
   3331049.018 3   2595621.863 2  22615394.707    22615400.030    22615394.707
    871365.457 3    678985.636 2  20151930.403    20151933.580    20151930.403
   -298006.570 3   -232212.206 2  23676239.448    23676246.460    23676239.448
  -5180580.530 3  -4036811.520 2  23465332.722    23465335.612    23465332.722
   6196233.268 3   4828225.538 2  24830366.202    24830373.987    24830366.202
  -5736823.119 3  -4461969.839 2  20436219.149    20436223.274    20436219.149
    596713.630 3    464110.365 2  19403874.832    19403877.525    19403874.832
   6241049.071 3   4854147.818 2  22871104.838    22871110.052    22871104.838
 03  9 24 15 27 30.0000000  0 11G 5G14G23G 7G 9G 4G30G26R17R24R23
  -3957485.324 3  -3083753.361 2  21127429.381    21127433.245    21127429.381
  -1116263.980 3   -869815.444 2  23599635.965    23599637.482    23599635.965
   2546550.588 3   1987421.393 1  25169547.521    25169550.154    25169547.521
   3402971.073 3   2651665.010 2  22629081.501    22629086.652    22629081.501
    902013.375 3    702867.121 2  20157762.432    20157765.723    20157762.432
   -371597.973 3   -289556.037 2  23662235.661    23662243.474    23662235.661
  -5281099.551 3  -4115137.971 2  23446203.411    23446209.764    23446203.411
   6311984.038 3   4918420.786 2  24852391.508    24852400.122    24852391.508
  -5829544.879 3  -4534086.705 2  20418897.682    20418902.322    20418897.682
    628286.184 3    488666.779 2  19409776.786    19409779.766    19409776.786
   6363882.855 3   4949685.197 2  22894001.182    22894005.651    22894001.182
 03  9 24 15 28  0.0000000  0 11G14G23G 7G 9G 4G30G26G24R17R24R23
  -1187139.102 3   -925042.831 2  23586148.837    23586150.697    23586148.837
                                  25180539.648
   3475227.829 3   2707968.968 2  22642832.212    22642836.533    22642832.212
    933184.210 3    727156.072 2  20163694.041    20163697.304    20163694.041
   -444818.151 3   -346610.590 2  23648301.346    23648308.844    23648301.346
  -5381478.254 3  -4193355.067 2  23427102.243    23427103.989    23427102.243
   6427724.676 3   5008608.088 1  24874414.739    24874424.583    24874414.739
                                  25280903.236
  -5921724.895 3  -4605782.221 2  20401677.216    20401681.398    20401677.216
    660572.289 3    513778.196 2  19415812.277    19415815.428    19415812.277
   6486913.883 3   5045375.987 2  22916937.679    22916943.351    22916937.679
 03  9 24 15 28 30.0000000  0 12G 5G14G23G 7G 9G 4G30G26G24R17R24R23
  -4083378.847 3  -3181852.168 2  21103472.372    21103476.465    21103472.372
  -1257553.422 3   -979911.141 2  23572747.272    23572752.452    23572747.272
                                  25191591.606
   3547821.410 3   2764535.383 2  22656645.573    22656650.038    22656645.573
    964881.731 3    751855.437 2  20169725.783    20169729.103    20169725.783
   -517659.661 3   -403370.132 2  23634440.321    23634445.558    23634440.321
  -5481711.408 3  -4271458.763 2  23408028.039    23408032.732    23408028.039
   6543456.786 3   5098788.783 1  24896438.090    24896446.676    24896438.090
                                  25262211.699
  -6013357.566 3  -4677052.019 2  20384559.787    20384564.199    20384559.787
    693573.789 3    539446.033 2  19421981.550    19421984.644    19421981.550
   6610143.130 3   5141220.962 2  22939909.482    22939915.383    22939909.482
 03  9 24 15 29  0.0000000  0 12G 5G14G23G 7G 9G 4G30G26G24R17R24R23
  -4145823.047 3  -3230509.973 2  21091589.510    21091593.431    21091589.510
  -1327508.928 3  -1034421.880 2  23559437.688    23559440.980    23559437.688
   2720835.853 3   2123396.234 1  25202713.058    25202717.523    25202713.058
   3620745.471 3   2821359.311 2  22670522.923    22670528.017    22670522.923
    997101.246 3    776961.544 2  20175856.936    20175860.428    20175856.936
   -590124.093 3   -459835.864 2  23620651.076    23620658.088    23620651.076
  -5581802.072 3  -4349451.404 2  23388983.365    23388987.257    23388983.365
   6659173.880 3   5188957.760 2  24918458.671    24918466.598    24918458.671
                                  25243522.650
  -6104443.354 3  -4747896.473 2  20367543.824    20367548.064    20367543.824
    727284.226 3    565665.256 2  19428283.530    19428286.452    19428283.530
   6733562.441 3   5237213.781 2  22962917.271    22962921.454    22962917.271
 03  9 24 15 29 30.0000000  0 12G 5G14G23G 7G 9G 4G30G26G24R17R24R23
  -4207932.480 3  -3278906.916 2  21079770.677    21079774.455    21079770.677
  -1397003.225 3  -1088573.286 2  23546211.417    23546213.821    23546211.417
   2779611.060 3   2169234.868 1  25213897.341    25213900.403    25213897.341
   3693998.011 3   2878439.183 2  22684462.439    22684467.676    22684462.439
   1029842.228 3    802473.982 2  20182087.341    20182090.746    20182087.341
   -662208.444 3   -516005.402 2  23606932.662    23606942.078    23606932.662
  -5681749.236 3  -4427332.215 2  23369960.711    23369968.953    23369960.711
   6774873.474 3   5279113.107 2  24940478.506    24940485.374    24940478.506
                                  25224830.906
  -6194979.535 3  -4818313.458 2  20350631.060    20350635.299    20350631.060
    761701.519 3    592434.258 2  19434717.442    19434719.848    19434717.442
   6857168.918 3   5333352.135 2  22985958.350    22985961.902    22985958.350
 03  9 24 15 30  0.0000000  0 12G 5G14G23G 7G 9G 4G30G26G24R17R24R23
  -4269711.693 3  -3327046.532 2  21068014.698    21068018.447    21068014.698
  -1466039.259 3  -1142367.595 2  23533074.403    23533076.807    23533074.403
   2838716.122 3   2215307.013 1  25225145.046    25225147.965    25225145.046
   3767571.419 3   2935769.094 2  22698462.880    22698467.802    22698462.880
   1063098.912 3    828388.274 2  20188415.819    20188419.339    20188415.819
   -733914.998 3   -571880.557 2  23593288.948    23593295.444    23593288.948
  -5781556.990 3  -4505104.517 2  23350970.536    23350971.595    23350970.536
   6890547.643 3   5369248.628 1  24962492.541    24962497.893    24962492.541
                                  25206135.809
  -6284969.707 3  -4888305.772 2  20333820.002    20333824.529    20333820.002
    796817.550 3    619746.728 2  19441281.935    19441284.685    19441281.935
   6980953.581 3   5429629.120 2  23009033.786    23009036.937    23009033.786
 03  9 24 15 30 30.0000000  0 11G14G23G 7G 9G 4G30G26G24R17R24R23
  -1534603.489 3  -1195794.231 2  23520026.192    23520031.000    23520026.192
                                  25236457.209
   3841475.064 3   2993356.323 2  22712526.580    22712530.787    22712526.580
   1096882.067 3    854712.799 2  20194844.627    20194848.033    20194844.627
   -805229.453 3   -627450.254 2  23579718.505    23579723.885    23579718.505
  -5881213.160 3  -4582758.578 2  23332004.904    23332011.143    23332004.904
   7006205.487 3   5459371.431 2  24984498.388    24984504.484    24984498.388
                                  25187445.752
  -6374400.395 3  -4957862.902 2  20317113.237    20317117.362    20317113.237
    832641.885 3    647610.103 2  19447978.942    19447981.864    19447978.942
   7104924.588 3   5526051.028 2  23032145.256    23032150.183    23032145.256
 03  9 24 15 31  0.0000000  0 12G 5G14G23G 7G 9G 4G30G26G24R17R24R23
  -4392249.038 3  -3422530.144 2  21044696.492    21044700.470    21044696.492
  -1602700.813 3  -1248857.034 2  23507067.962    23507072.369    23507067.962
   2957932.992 3   2308249.999 1  25247830.207    25247833.670    25247830.207
   3915699.816 3   3051193.762 2  22726651.021    22726655.429    22726651.021
   1131184.028 3    881441.594 2  20201372.132    20201375.566    20201372.132
   -876156.267 3   -682717.866 2  23566220.983    23566226.220    23566220.983
  -5980723.411 3  -4660299.000 2  23313068.740    23313069.627    23313068.740
   7121837.435 3   5549474.035 1  25006502.528    25006513.975    25006502.528
          .927 3          .959 1  25168754.315    25168762.557    25168754.315
  -6463276.911 3  -5026989.017 2  20300510.848    20300514.916    20300510.848
    869164.942 3    676016.925 2  19454806.702    19454809.681    19454806.702
   7229071.186 3   5622609.543 2  23055286.793    23055290.403    23055286.793
 03  9 24 15 31 30.0000000  0 12G 5G14G23G 7G 9G 4G30G26G24R17R24R23
  -4453010.493 3  -3469876.710 2  21033134.069    21033137.904    21033134.069
  -1670326.772 3  -1301552.541 2  23494199.402    23494201.720    23494199.402
   3018034.831 3   2355123.672 1  25259265.594    25259273.865    25259265.594
   3990245.547 3   3109281.325 2  22740835.838    22740840.589    22740835.838
   1166006.430 3    908575.927 2  20207998.618    20208002.052    20207998.618
   -946690.421 3   -737679.454 2  23552797.932    23552805.745    23552797.932
  -6080084.807 3  -4737723.426 2  23294160.801    23294165.867    23294160.801
   7237442.931 3   5639556.099 2  25028502.572    25028511.358    25028502.572
    -98212.612 3    -76528.845 1  25150063.194    25150075.299    25150063.194
  -6551592.688 3  -5095678.998 2  20284012.530    20284016.540    20284012.530
    906386.739 3    704967.216 2  19461764.754    19461767.791    19461764.754
   7353391.665 3   5719303.267 2  23078462.807    23078468.021    23078462.807
 03  9 24 15 32  0.0000000  0 12G 5G14G23G 7G 9G 4G30G26G24R17R24R23
  -4513431.245 3  -3516957.790 2  21021636.282    21021640.231    21021636.282
  -1737478.446 3  -1353878.490 2  23481420.071    23481423.734    23481420.071
                                  25270766.104
   4065111.040 3   3167618.052 2  22755082.453    22755086.717    22755082.453
   1201349.382 3    936115.881 2  20214724.051    20214727.542    20214724.051
  -1016827.999 3   -792332.023 2  23539453.382    23539458.819    23539453.382
  -6179295.452 3  -4815030.345 2  23275281.886    23275285.234    23275281.886
   7353020.530 3   5729616.330 2  25050493.900    25050502.142    25050493.900
   -196414.588 3   -153049.605 1  25131376.581    25131387.284    25131376.581
  -6639345.976 3  -5163931.499 2  20267619.656    20267623.895    20267619.656
    944305.306 3    734459.440 2  19468853.210    19468856.247    19468853.210
   7477883.625 3   5816130.375 2  23101668.672    23101673.256    23101668.672
 03  9 24 15 32 30.0000000  0 12G 5G14G23G 7G 9G 4G30G26G24R17R24R23
  -4573521.634 3  -3563781.453 2  21010201.127    21010205.105    21010201.127
  -1804164.454 3  -1405841.584 2  23468730.951    23468736.617    23468730.951
   3139206.174 3   2449587.347 1  25282325.540    25282328.401    25282325.540
   4140282.850 3   3226193.460 2  22769386.892    22769391.900    22769386.892
   1237200.859 3    964052.080 2  20221546.290    20221549.925    20221546.290
  -1086577.647 3   -846682.340 2  23526179.503    23526185.398    23526179.503
  -6278365.501 3  -4892227.731 2  23256427.465    23256433.017    23256427.465
   7468556.448 3   5819644.182 1  25072481.362    25072489.604    25072481.362
   -294613.479 3   -229567.975 1  25112690.558    25112699.086    25112690.558
  -6726544.483 3  -5231752.501 2  20251330.574    20251334.527    20251330.574
    982906.822 3    764482.851 2  19476069.236    19476072.330    19476069.236
   7602532.910 3   5913079.859 2  23124907.166    23124911.749    23124907.166
 03  9 24 15 33  0.0000000  0 12G 5G14G23G 7G 9G 4G30G26G24R17R24R23
  -4633264.653 3  -3610334.434 2  20998832.429    20998836.464    20998832.429
  -1870366.818 3  -1457427.789 2  23456132.797    23456136.804    23456132.797
                                  25293948.024
   4215775.171 3   3285018.615 2  22783753.865    22783758.415    22783753.865
   1273576.447 3    992396.684 2  20228468.410    20228471.988    20228468.410
  -1155920.192 3   -900715.384 2  23512982.684    23512988.665    23512982.684
  -6377277.627 3  -4969302.040 2  23237606.281    23237612.606    23237606.281
   7584064.620 3   5909650.375 1  25094463.158    25094471.915    25094463.158
   -392790.527 3   -306069.363 1  25094007.351    25094017.310    25094007.351
  -6813170.874 3  -5299128.519 2  20235147.607    20235152.019    20235147.607
   1022205.455 3    795048.452 2  19483415.851    19483418.658    19483415.851
   7727352.568 3   6010161.841 2  23148174.575    23148177.726    23148174.575
 03  9 24 15 33 30.0000000  0 12G 5G14G23G 7G 9G 4G30G26G24R17R24R23
  -4692661.748 3  -3656617.862 2  20987529.563    20987533.684    20987529.563
  -1936085.418 3  -1508637.061 2  23443627.261    23443630.409    23443627.261
                                  25305631.525
   4291583.633 3   3344090.132 2  22798179.744    22798184.094    22798179.744
   1310473.301 3   1021147.472 2  20235489.719    20235493.268    20235489.719
  -1224855.147 3   -954430.836 2  23499864.673    23499872.543    23499864.673
  -6476032.969 3  -5046254.194 2  23218814.900    23218819.794    23218814.900
   7699540.258 3   5999631.136 1  25116434.520    25116444.450    25116434.520
   -490945.176 3   -382553.337 1  25075330.159    25075334.452    25075330.159
  -6899225.532 3  -5366059.830 2  20219071.756    20219076.340    20219071.756
   1062196.561 3    826152.646 2  19490891.924    19490895.189    19490891.924
   7852336.399 3   6107371.565 2  23171473.194    23171476.746    23171473.194
 03  9 24 15 34  0.0000000  0 12G 5G14G23G 7G 9G 4G30G26G24R17R24R23
  -4751719.412 3  -3702636.798 2  20976291.256    20976295.177    20976291.256
  -2001325.261 3  -1559473.278 2  23431211.849    23431215.226    23431211.849
                                  25317371.669
   4367698.889 3   3403400.691 2  22812663.757    22812668.221    22812663.757
   1347883.487 3   1050298.253 2  20242608.714    20242612.119    20242608.714
  -1293386.807 3  -1007832.013 2  23486823.684    23486829.579    23486823.684
  -6574637.670 3  -5123088.953 2  23200050.861    23200054.352    23200050.861
   7814973.697 3   6089579.083 1  25138403.148    25138411.676    25138403.148
   -589081.720 3   -459023.237 1  25056655.090    25056664.849    25056655.090
  -6984713.234 3  -5432550.203 2  20203101.724    20203106.193    20203101.724
   1102869.821 3    857787.400 2  19498494.962    19498498.228    19498494.962
   7977473.726 3   6204700.658 2  23194802.245    23194807.516    23194802.245
 03  9 24 15 34 30.0000000  0 12G 5G14G23G 7G 9G 4G30G26G24R17R24R23
  -4810430.895 3  -3748385.986 2  20965118.745    20965122.723    20965118.745
  -2066078.450 3  -1609930.269 2  23418889.301    23418893.794    23418889.301
                                  25329170.566
   4444124.641 3   3462953.210 2  22827206.666    22827211.646    22827206.666
   1385812.386 3   1079853.231 2  20249826.313    20249829.804    20249826.313
  -1361506.760 3  -1060912.396 2  23473860.384    23473867.681    23473860.384
  -6673084.818 3  -5199800.975 2  23181315.921    23181320.329    23181315.921
   7930368.356 3   6179496.806 1  25160363.796    25160369.205    25160363.796
   -687191.312 3   -535472.033 1  25037983.791    25037995.639    25037983.791
  -7069624.399 3  -5498592.146 2  20187239.472    20187243.998    20187239.472
   1144229.341 3    889955.916 2  19506227.009    19506230.332    19506227.009
   8102768.124 3   6302151.897 2  23218158.430    23218161.581    23218158.430
 03  9 24 15 35  0.0000000  0 12G 5G14G23G 7G 9G 4G30G26G24R17R24R23
  -4868797.307 3  -3793866.295 2  20954012.117    20954016.066    20954012.117
  -2130344.549 3  -1660007.723 2  23406661.478    23406665.370    23406661.478
   3447722.088 3   2690096.915 1  25341031.894    25341039.306    25341031.894
   4520856.969 3   3522744.621 2  22841809.036    22841813.185    22841809.036
   1424257.522 3   1109810.468 2  20257142.066    20257145.786    20257142.066
  -1429213.768 3  -1113670.989 2  23460977.492    23460982.243    23460977.492
  -6771375.098 3  -5276390.744 2  23162612.696    23162616.931    23162612.696
   8045720.004 3   6269381.052 2  25182312.074    25182321.404    25182312.074
   -785273.169 3   -611899.339 1  25019318.202    25019329.077    25019318.202
  -7153960.268 3  -5564186.660 2  20171485.157    20171489.282    20171485.157
   1186270.829 3    922654.843 2  19514086.253    19514089.404    19514086.253
   8228213.547 3   6399720.612 2  23241542.805    23241546.930    23241542.805
 03  9 24 15 35 30.0000000  0 12G 5G14G23G 7G 9G 4G30G26G24R17R24R23
  -4926824.061 3  -3839081.927 2  20942969.764    20942973.684    20942969.764
  -2194127.620 3  -1709708.813 2  23394523.855    23394527.575    23394523.855
                                  25352952.726
   4597887.506 3   3582768.386 2  22856467.202    22856472.696    22856467.202
   1463211.755 3   1140164.402 2  20264554.768    20264558.688    20264554.768
  -1496511.441 3  -1166110.622 2  23448171.605    23448176.956    23448171.605
  -6869513.800 3  -5352862.415 2  23143937.201    23143940.463    23143937.201
   8161020.120 3   6359225.049 1  25204253.131    25204260.314    25204253.131
   -883330.240 3   -688307.321 1  25000657.798    25000668.616    25000657.798
  -7237723.764 3  -5629335.993 2  20155837.233    20155841.301    20155837.233
   1228984.577 3    955876.655 2  19522070.980    19522074.074    19522070.980
   8353800.823 3   6497399.633 2  23264953.615    23264957.797    23264953.615
 03  9 24 15 36  0.0000000  0 12G 5G14G23G 7G 9G 4G30G26G24R17R24R23
  -4984504.886 3  -3884028.006 2  20931993.511    20931997.375    20931993.511
  -2257420.034 3  -1759027.544 2  23382479.627    23382482.260    23382479.627
   3573294.490 3   2787981.615 1  25364929.617    25364938.546    25364929.617
   4675219.607 3   3643027.146 2  22871183.431    22871188.182    22871183.431
   1502679.873 3   1170918.771 2  20272065.515    20272069.293    20272065.515
  -1563391.467 3  -1218224.806 2  23435443.927    23435449.909    23435443.927
  -6967494.230 3  -5429210.751 2  23125292.031    23125297.068    23125292.031
   8276271.724 3   6449031.315 1  25226186.425    25226196.355    25226186.425
   -981354.433 3   -764689.641 1  24982005.514    24982013.098    24982005.514
  -7320907.416 3  -5694034.335 2  20140298.009    20140302.134    20140298.009
   1272374.356 3    989624.257 2  19530182.337    19530185.087    19530182.337
   8479531.768 3   6595190.413 2  23288391.813    23288396.740    23288391.813
 03  9 24 15 36 30.0000000  0 12G 5G14G23G 7G 9G 4G30G26G24R17R24R23
  -5041834.079 3  -3928700.089 2  20921084.127    20921088.048    20921084.127
  -2320214.823 3  -1807958.529 2  23370530.096    23370533.645    23370530.096
   3636540.901 3   2837281.879 1  25376966.014    25376973.627    25376966.014
   4752855.876 3   3703522.920 2  22885956.564    22885961.543    22885956.564
   1542666.156 3   1202076.906 2  20279674.733    20279678.225    20279674.733
  -1629846.348 3  -1270007.734 2  23422796.815    23422803.569    23422796.815
  -7065310.486 3  -5505431.161 2  23106679.221    23106681.568    23106679.221
   8391477.107 3   6538801.530 1  25248108.305    25248117.205    25248108.305
  -1079337.881 3   -841040.275 1  24963357.534    24963369.296    24963357.534
  -7403505.947 3  -5758277.593 2  20124867.692    20124872.505    20124867.692
   1316442.426 3   1023899.422 2  19538420.519    19538422.983    19538420.519
   8605408.409 3   6693094.524 2  23311858.460    23311864.304    23311858.460
 03  9 24 15 37  0.0000000  0 12G 5G14G23G 7G 9G 4G30G26G24R17R24R23
  -5098819.731 3  -3973104.471 2  20910240.044    20910244.223    20910240.044
  -2382518.579 3  -1856506.886 2  23358674.428    23358677.719    23358674.428
   3700083.549 3   2886823.579 1  25389057.055    25389064.897    25389057.055
   4830785.650 3   3764247.396 2  22900786.211    22900790.962    22900786.211
   1583160.998 3   1233631.317 2  20287380.569    20287384.118    20287380.569
  -1695882.065 3  -1321464.043 2  23410232.585    23410236.563    23410232.585
  -7162970.236 3  -5581529.613 2  23088095.285    23088098.634    23088095.285
   8506625.144 3   6628527.061 1  25270019.991    25270029.550    25270019.991
  -1177286.918 3   -917364.100 1  24944721.496    24944726.418    24944721.496
  -7485524.675 3  -5822069.890 2  20109545.579    20109549.017    20109545.579
   1361176.909 3   1058692.894 2  19546783.165    19546785.857    19546783.165
   8731418.898 3   6791102.711 2  23335349.891    23335354.933    23335349.891
 03  9 24 15 37 30.0000000  0 12G 5G14G23G 7G 9G 4G30G26G24R17R24R23
  -5155452.181 3  -4017233.628 2  20899463.380    20899467.301    20899463.380
  -2444320.427 3  -1904664.133 2  23346912.555    23346917.477    23346912.555
                                  25401206.343
   4909015.441 3   3825205.655 2  22915672.199    22915677.723    22915672.199
   1624172.350 3   1265588.194 2  20295184.704    20295188.338    20295184.704
  -1761487.096 3  -1372584.737 2  23397747.327    23397752.393    23397747.327
  -7260463.535 3  -5657498.389 2  23069541.965    23069545.743    23069541.965
   8621722.396 3   6718213.074 2  25291924.271    25291934.431    25291924.271
  -1275189.330 3   -993651.570 1  24926090.434    24926098.820    24926090.434
  -7566952.442 3  -5885402.551 2  20094334.476    20094338.715    20094334.476
   1406584.401 3   1094009.829 2  19555271.528    19555274.336    19555271.528
   8857568.086 3   6889218.821 2  23358863.935    23358868.175    23358863.935
 03  9 24 15 38  0.0000000  0 12G 5G14G23G 7G 9G 4G30G26G24R17R24R23
  -5211735.931 3  -4061091.084 2  20888753.060    20888756.838    20888753.060
  -2505623.376 3  -1952432.647 2  23335247.068    23335252.419    23335247.068
                                  25413410.595
   4987538.073 3   3886392.093 2  22930615.561    22930620.741    22930615.561
   1665694.299 3   1297942.943 2  20303086.031    20303089.637    20303086.031
  -1826663.778 3  -1423371.652 2  23385344.169    23385350.837    23385344.169
  -7357794.633 3  -5733340.742 2  23051020.318    23051024.983    23051020.318
   8736761.180 3   6807853.462 1  25313814.439    25313821.994    25313814.439
  -1373047.604 3  -1069904.727 1  24907468.389    24907477.461    24907468.389
  -7647792.289 3  -5948277.946 2  20079232.918    20079236.872    20079232.918
   1452656.613 3   1129843.757 2  19563884.073    19563887.109    19563884.073
   8983847.730 3   6987436.357 2  23382404.323    23382410.110    23382404.323
 03  9 24 15 38 30.0000000  0 12G 5G14G23G 7G 9G 4G30G26G24R17R24R23
  -5267665.928 3  -4104672.878 2  20878109.778    20878113.698    20878109.778
  -2566421.297 3  -1999807.620 2  23323679.926    23323682.387    23323679.926
                                  25425672.330
   5066355.465 3   3947808.228 2  22945612.998    22945618.321    22945612.998
   1707730.163 3   1330698.151 2  20311085.178    20311088.870    20311085.178
  -1891405.445 3  -1473819.605 2  23373022.918    23373029.272    23373022.918
  -7454958.219 3  -5809052.575 2  23032530.543    23032535.236    23032530.543
   8851743.247 3   6897449.627 2  25335693.346    25335703.076    25335693.346
  -1470854.641 3  -1146117.848 1  24888855.973    24888869.795    24888855.973
  -7728039.023 3  -6010692.021 2  20064241.747    20064245.643    20064241.747
   1499395.413 3   1166196.152 2  19572621.212    19572624.363    19572621.212
   9110259.137 3   7085756.415 2  23405970.333    23405973.771    23405970.333
 03  9 24 15 39  0.0000000  0 12G 5G14G23G 7G 9G 4G30G26G24R17R24R23
  -5323246.739 3  -4147982.584 2  20867533.020    20867536.941    20867533.020
  -2626717.540 3  -2046791.697 2  23312203.634    23312207.498    23312203.634
   3957228.346 3   3087295.567 1  25437997.292    25437996.118    25437997.292
   5145460.255 3   4009448.281 2  22960666.052    22960671.318    22960666.052
   1750274.165 3   1363849.301 2  20319181.050    20319184.885    20319181.050
  -1955714.552 3  -1523930.505 2  23360786.697    23360791.391    23360786.697
  -7551958.420 3  -5884637.111 2  23014072.124    23014076.359    23014072.124
   8966661.062 3   6986995.830 1  25357560.616    25357575.240    25357560.616
  -1568612.955 3  -1222293.089 1  24870252.507    24870260.176    24870252.507
  -7807695.354 3  -6072646.916 2  20049361.677    20049365.458    20049361.677
   1546792.437 3   1203060.496 2  19581481.744    19581484.952    19581481.744
   9236793.809 3   7184172.381 2  23429558.148    23429562.388    23429558.148
 03  9 24 15 39 30.0000000  0 12G 5G14G23G 7G 9G 4G30G26G24R17R24R23
  -5378482.737 3  -4191023.610 2  20857022.092    20857025.984    20857022.092
  -2686515.160 3  -2093387.213 2  23300824.550    23300829.330    23300824.550
   4022233.031 3   3137976.412 1  25450359.347    25450367.761    25450359.347
   5224845.125 3   4071306.593 2  22975772.675    22975777.397    22975772.675
   1793320.113 3   1397391.583 2  20327372.602    20327376.180    20327372.602
  -2019593.553 3  -1573706.245 2  23348630.633    23348635.899    23348630.633
  -7648799.330 3  -5960097.512 2  22995643.898    22995647.618    22995643.898
   9081507.134 3   7076486.025 2  25379419.907    25379429.323    25379419.907
  -1666324.728 3  -1298432.037 1  24851658.790    24851668.406    24851658.790
  -7886764.201 3  -6134144.889 2  20034590.885    20034594.781    20034590.885
   1594840.259 3   1240431.014 2  19590463.838    19590466.875    19590463.838
   9363442.797 3   7282677.220 2  23453168.055    23453174.873    23453168.055
 03  9 24 15 40  0.0000000  0 11G 5G14G 7G 9G 4G30G26G24R17R24R23
  -5433357.630 3  -4233783.248 2  20846579.767    20846583.574    20846579.767
  -2745796.359 3  -2139580.330 2  23289544.721    23289550.216    23289544.721
   5304523.552 3   4133393.647 2  22990934.892    22990940.444    22990934.892
   1836882.643 3   1431336.402 2  20335662.307    20335665.627    20335662.307
  -2083024.344 3  -1623132.745 2  23336560.065    23336565.817    23336560.065
  -7745464.390 3  -6035420.870 2  22977248.540    22977252.289    22977248.540
   9196294.653 3   7165930.590 1  25401260.056    25401264.606    25401260.056
  -1763971.420 3  -1374520.199 1  24833077.292    24833088.796    24833077.292
  -7965228.823 3  -6195172.875 2  20019932.812    20019936.994    20019932.812
   1643551.324 3   1278317.389 2  19599569.945    19599572.867    19599569.945
   9490219.416 3   7381281.380 2  23476802.070    23476807.054    23476802.070
 03  9 24 15 40 30.0000000  0 12G 5G14G23G 7G 9G 4G30G26G24R17R24R23
  -5487885.616 3  -4276272.583 2  20836203.530    20836207.308    20836203.530
  -2804574.066 3  -2185381.132 2  23278359.444    23278363.079    23278359.444
   4153104.742 3   3240014.151 1  25475258.456    25475272.479    25475258.456
   5384478.467 3   4195696.166 2  23006149.351    23006155.532    23006149.351
   1880945.866 3   1465671.365 2  20344047.389    20344050.709    20344047.389
  -2146018.977 3  -1672219.397 2  23324573.071    23324577.736    23324573.071
  -7841967.240 3  -6110617.871 2  22958885.175    22958889.038    22958885.175
   9311006.186 3   7255316.010 1  25423091.698    25423105.206    25423091.698
  -1861565.366 3  -1450567.362 1  24814506.008    24814515.710    24814506.008
  -8043102.183 3  -6255741.001 2  20005385.437    20005388.989    20005385.437
   1692908.025 3   1316705.925 2  19608796.604    19608799.812    19608796.604
   9617104.607 3   7479969.954 2  23500454.527    23500458.824    23500454.527
 03  9 24 15 41  0.0000000  0 12G 5G14G23G 7G 9G 4G30G26G24R17R24R23
  -5542061.512 3  -4318487.548 2  20825894.128    20825897.791    20825894.128
  -2862842.085 3  -2230784.774 2  23267270.355    23267274.218    23267270.355
                                  25487796.960
   5464712.097 3   4258215.860 2  23021418.070    23021423.708    23021418.070
   1925513.364 3   1500399.279 2  20352528.257    20352531.634    20352528.257
  -2208570.738 3  -1720960.921 2  23312669.579    23312676.047    23312669.579
  -7938302.482 3  -6185684.230 2  22940553.405    22940557.412    22940553.405
   9425643.840 3   7344643.818 1  25444905.400    25444913.556    25444905.400
  -1959099.300 3  -1526567.786 1  24795947.803    24795953.784    24795947.803
  -8120377.085 3  -6315843.670 2  19990949.618    19990953.800    19990949.618
   1742912.072 3   1355597.958 2  19618144.339    19618147.605    19618144.339
   9744100.287 3   7578744.482 2  23524128.372    23524133.471    23524128.372
 03  9 24 15 41 30.0000000  0 12G 5G14G23G 7G 9G 4G30G26G24R17R24R23
  -5595871.459 3  -4360417.366 2  20815654.193    20815658.056    20815654.193
  -2920585.171 3  -2275779.362 2  23256283.028    23256286.234    23256283.028
   3342907.093 1                  25500380.742    25500385.321
   5545235.467 3   4320961.320 2  23036741.283    23036745.977    23036741.283
   1970597.385 3   1535529.665 2  20361107.379    20361110.870    20361107.379
  -2270663.665 3  -1769344.936 2  23300852.538    23300858.118    23300852.538
  -8034456.021 3  -6260609.040 2  22922255.744    22922259.436    22922255.744
   9540218.307 3   7433922.411 1  25466709.102    25466718.575    25466709.102
  -2056556.766 3  -1602508.588 1  24777402.208    24777409.677    24777402.208
  -8197037.063 3  -6375468.063 2  19976628.596    19976632.836    19976628.596
   1793573.859 3   1395001.562 2  19627615.056    19627618.093    19627615.056
   9871216.490 3   7677612.763 2  23547824.181    23547829.050    23547824.181
 03  9 24 15 42  0.0000000  0 12G 5G14G23G 7G 9G 4G30G26G24R17R24R23
  -5649327.713 3  -4402071.573 2  20805481.979    20805485.785    20805481.979
  -2977814.485 3  -2320373.598 2  23245393.000    23245396.062    23245393.000
                                  25513019.558
   5626033.343 3   4383920.692 2  23052115.731    23052121.912    23052115.731
   2016184.178 3   1571051.824 2  20369782.218    20369785.881    20369782.218
  -2332308.389 3  -1817379.717 2  23289122.823    23289128.432    23289122.823
  -8130439.874 3  -6335401.620 2  22903990.397    22903993.259    22903990.397
   9654714.384 3   7523139.884 1  25488495.567    25488501.491    25488495.567
  -2153948.185 3  -1678397.866 1  24758868.444    24758877.001    24758868.444
  -8273096.035 3  -6434625.021 2  19962420.451    19962424.347    19962420.451
   1844877.054 3   1434904.039 2  19637205.772    19637208.809    19637205.772
   9998436.604 3   7776561.878 2  23571541.754    23571547.139    23571541.754
 03  9 24 15 42 30.0000000  0 12G 5G14G23G 7G 9G 4G30G26G24R17R24R23
  -5702431.578 3  -4443451.189 2  20795376.638    20795380.502    20795376.638
  -3034529.809 3  -2364567.334 2  23234598.463    23234602.183    23234598.463
   3446654.004 1                  25525705.717    25525711.097
   5707101.796 3   4447090.887 2  23067543.264    23067548.616    23067543.264
   2062270.844 3   1606963.497 2  20378552.217    20378555.765    20378552.217
  -2393504.105 3  -1865064.603 2  23277477.228    23277482.895    23277477.228
  -8226254.653 3  -6410062.468 2  22885758.774    22885762.265    22885758.774
   9769127.818 3   7612292.993 1  25510269.127    25510277.626    25510269.127
  -2251272.388 3  -1754234.905 1  24740347.813    24740354.653    24740347.813
  -8348552.136 3  -6493313.067 2  19948324.676    19948328.400    19948324.676
   1896817.680 3   1475302.288 2  19646915.750    19646918.729    19646915.750
  10125756.121 3   7875588.301 2  23595274.772    23595281.189    23595274.772
 03  9 24 15 43  0.0000000  0 12G 5G14G23G 7G 9G 4G30G26G24R17R24R23
  -5755178.286 3  -4484552.508 2  20785339.258    20785343.093    20785339.258
  -3090725.631 3  -2408356.282 2  23223906.673    23223911.825    23223906.673
                                  25538445.945
   5788442.476 3   4510473.228 2  23083022.669    23083028.393    23083022.669
   2108860.431 3   1643267.051 2  20387417.896    20387421.588    20387417.896
  -2454244.220 3  -1912394.473 2  23265918.401    23265924.725    23265918.401
  -8321895.518 3  -6484587.764 2  22867558.124    22867561.988    22867558.124
   9883460.033 3   7701382.752 1  25532024.835    25532040.918    25532024.835
  -2348522.662 2  -1830014.213 1  24721840.833    24721853.626    24721840.833
  -8423400.896 3  -6551528.737 2  19934342.142    19934346.324    19934342.142
   1949396.468 3   1516196.894 2  19656744.554    19656747.533    19656744.554
  10253174.884 3   7974691.881 2  23619026.289    23619032.821    23619026.289
 03  9 24 15 43 30.0000000  0 12G 5G14G23G 7G 9G 4G30G26G24R17R24R23
  -5807572.152 3  -4525378.873 2  20775368.991    20775372.683    20775368.991
  -3146404.855 3  -2451742.654 2  23213310.178    23213313.955    23213310.178
                                  25551239.242
   5870048.233 3   4574062.082 2  23098551.642    23098557.080    23098551.642
   2155946.987 3   1679957.863 2  20396378.174    20396381.923    20396378.174
  -2514531.373 3  -1959371.411 2  23254447.045    23254450.279    23254447.045
  -8417366.234 3  -6558980.501 2  22849390.033    22849394.011    22849390.033
   9997703.789 3   7790403.627 1  25553765.571    25553774.872    25553765.571
  -2445701.113 3  -1905737.596 1  24703347.517    24703360.882    24703347.517
  -8497645.085 3  -6609274.191 2  19920473.274    19920477.055    19920473.274
   2002605.417 3   1557581.622 2  19666691.168    19666694.491    19666691.168
  10380685.646 3   8073867.067 2  23642796.809    23642801.048    23642796.809
 03  9 24 15 44  0.0000000  0 12G 5G14G23G 7G 9G 4G30G26G24R17R24R23
  -5859600.593 3  -4565920.507 2  20765468.453    20765472.087    20765468.453
  -3201553.938 3  -2494715.947 2  23202816.494    23202819.957    23202816.494
                                  25564076.374
   5951928.832 3   4637865.134 2  23114133.249    23114137.857    23114133.249
   2203541.275 3   1717044.307 2  20405434.974    20405438.866    20405434.974
  -2574351.294 3  -2005984.251 2  23243062.525    23243070.023    23243062.525
  -8512654.005 3  -6633230.683 2  22831257.212    22831261.305    22831257.212
  10111868.499 3   7879362.895 1  25575491.955    25575499.710    25575491.955
  -2542792.707 3  -1981393.339 1  24684872.648    24684881.663    24684872.648
  -8571271.051 3  -6666538.799 2  19906718.959    19906722.568    19906718.959
   2056453.488 3   1599463.438 2  19676757.839    19676760.475    19676757.839
  10508297.023 3   8173120.486 2  23666585.566    23666590.951    23666585.566
 03  9 24 15 44 30.0000000  0 12G 5G14G23G 7G 9G 4G30G26G24R17R24R23
  -5911275.990 3  -4606187.042 2  20755634.859    20755638.550    20755634.859
  -3256183.658 3  -2537284.535 2  23192420.516    23192424.465    23192420.516
                                  25576968.656
   6034069.204 3   4701870.599 2  23129763.807    23129769.073    23129763.807
   2251629.589 3   1754515.708 2  20414586.013    20414589.562    20414586.013
  -2633713.939 3  -2052240.789 2  23231767.838    23231772.503    23231767.838
  -8607770.583 3  -6707347.449 2  22813156.507    22813161.229    22813156.507
  10225939.075 3   7968248.834 1  25597195.456    25597205.358    25597195.456
  -2639807.680 3  -2056989.301 1  24666411.280    24666421.669    24666411.280
  -8644289.829 3  -6723331.150 2  19893078.426    19893082.093    19893078.426
   2110924.889 3   1641830.072 2  19686940.500    19686943.536    19686940.500
  10635992.656 3   8272439.459 2  23690389.962    23690393.973    23690389.962
 03  9 24 15 45  0.0000000  0 12G 5G14G23G 7G 9G 4G30G26G24R17R24R23
  -5962588.576 3  -4646170.861 2  20745870.368    20745873.859    20745870.368
  -3310283.490 3  -2579440.223 2  23182126.145    23182130.466    23182126.145
                                  25589907.408
   6116476.096 3   4766083.741 2  23145444.612    23145450.307    23145444.612
   2300219.688 3   1792378.100 2  20423832.431    20423836.094    20423832.431
  -2692608.180 3  -2098132.343 2  23220558.477    23220565.774    23220558.477
  -8702706.092 3  -6781323.138 2  22795091.555    22795096.763    22795091.555
  10339922.161 3   8057066.519 1  25618888.213    25618893.794    25618888.213
  -2736734.475 3  -2132516.584 1  24647970.083    24647978.182    24647970.083
  -8716690.496 3  -6779642.746 2  19879552.971    19879557.268    19879552.971
   2166025.724 3   1684686.269 2  19697241.083    19697244.062    19697241.083
  10763779.175 3   8371829.138 2  23714211.762    23714216.403    23714211.762
 03  9 24 15 45 30.0000000  0 12G 5G14G23G 7G 9G 4G30G26G24R17R24R23
  -6013537.542 3  -4685871.349 2  20736175.046    20736178.966    20736175.046
  -3363851.377 3  -2621181.403 2  23171932.626    23171935.631    23171932.626
                                  25602894.321
   6199147.537 3   4830503.037 2  23161176.789    23161182.628    23161176.789
   2349310.670 3   1830630.797 2  20433174.119    20433177.754    20433174.119
  -2751031.369 3  -2143656.830 2  23209442.289    23209448.557    23209442.289
  -8797459.303 3  -6855156.785 2  22777060.828    22777064.119    22777060.828
  10453815.510 3   8145814.383 1  25640561.071    25640570.314    25640561.071
  -2833569.838 3  -2207972.662 1  24629541.467    24629544.872    24629541.467
  -8788471.783 3  -6835472.596 2  19866143.676    19866147.686    19866143.676
   2221752.800 3   1728029.545 2  19707658.592    19707661.915    19707658.592
  10891653.293 3   8471286.938 2  23738050.925    23738055.566    23738050.925
 03  9 24 15 46  0.0000000  0 12G 5G14G23G 7G 9G 4G30G26G24R17R24R23
  -6064126.247 3  -4725291.099 2  20726548.308    20726552.229    20726548.308
  -3416889.349 3  -2662509.692 2  23161839.490    23161842.266    23161839.490
                                  25615929.798
   6282077.270 3   4895123.586 2  23176958.640    23176962.303    23176958.640
   2398897.527 3   1869269.885 2  20442610.150    20442613.871    20442610.150
  -2808984.996 3  -2188815.422 2  23198413.736    23198419.345    23198413.736
  -8892033.038 3  -6928850.563 2  22759064.400    22759068.206    22759064.400
  10567612.656 3   8234487.253 1  25662216.849    25662228.954    25662216.849
  -2930314.830 3  -2283358.306 1  24611131.146    24611137.184    24611131.146
  -8859634.832 3  -6890821.599 2  19852849.982    19852854.222    19852849.982
   2278099.630 3   1771854.850 2  19718191.908    19718195.460    19718191.908
  11019607.219 3   8570806.841 2  23761901.654    23761907.097    23761901.654
 03  9 24 15 46 30.0000000  0  8G 5G14G23G 7G 9G 4R24R23
  -6114354.450 3  -4764429.949 2  20716990.444    20716993.964    20716990.444
  -3469396.210 3  -2703424.115 2  23151847.065    23151850.699    23151847.065
   4961062.257 3                  25629012.783                    25629012.783
   6365262.747 3   4959943.419 2  23192787.474    23192793.884    23192787.474
   2448978.729 3   1908294.178 2  20452140.209    20452144.187    20452140.209
  -2866467.230 3  -2233606.716 2  23187475.291    23187481.044    23187475.291
   2335062.177 3   1816159.052 2  19728840.554    19728843.820    19728840.554
  11147638.612 3   8670386.961 2  23785770.748    23785775.217    23785770.748
 03  9 24 15 47  0.0000000  0 12G 5G14G23G 7G 9G 4G30G26G24R17R24R23
  -6164218.362 3  -4803284.931 2  20707501.523    20707505.215    20707501.523
  -3521366.942 3  -2743920.769 2  23141958.155    23141961.761    23141958.155
   5030064.046 3                  25642141.736                    25642141.736
   6448704.965 3   5024963.328 2  23208666.564    23208671.801    23208666.564
   2499556.389 3   1947705.328 2  20461764.848    20461768.654    20461764.848
  -2923472.437 3  -2278026.280 2  23176626.733    23176632.857    23176626.733
  -9080636.396 3  -7075814.149 2  22723174.416    22723178.022    22723174.416
  10794911.261 3   8411602.488 1  25705468.788    25705480.751    25705468.788
  -3123520.578 3  -2433908.050 1  24574363.054    24574371.611    24574363.054
  -9000102.548 3  -7000074.201 2  19826609.475    19826613.256    19826609.475
   2392641.042 3   1860942.601 2  19739604.434    19739607.241    19739604.434
  11275747.226 3   8770027.145 2  23809650.878    23809655.118    23809650.878
 03  9 24 15 47 30.0000000  0 11G14G23G 7G 9G 4G30G26G24R17R24R23
  -3572800.813 3  -2783999.078 2  23132170.680    23132174.171    23132170.680
   5099310.605 3                  25655323.575                    25655323.575
   6532400.850 3   5090180.870 2  23224592.857    23224598.524    23224592.857
   2550628.404 3   1987501.676 2  20471483.578    20471487.298    20471483.578
  -2979999.000 3  -2322072.896 2  23165871.207    23165875.958    23165871.207
  -9174661.632 3  -7149080.533 2  22705281.832    22705285.438    22705281.832
  10908410.347 3   8500043.148 1  25727068.112    25727080.360    25727068.112
  -3219973.017 3  -2509065.719 1  24556009.569    24556017.324    24556009.569
  -9069400.135 3  -7053972.295 2  19813663.752    19813667.648    19813663.752
   2450832.308 3   1906202.459 2  19750482.510    19750485.432    19750482.510
  11403928.579 3   8869723.899 2  23833545.562    23833550.260    23833545.562
 03  9 24 15 48  0.0000000  0 12G 5G14G23G 7G 9G 4G30G26G24R17R24R23
  -6262856.161 3  -4880145.534 2  20688731.152    20688734.987    20688731.152
  -3623699.030 3  -2823660.031 2  23122484.991    23122487.337    23122484.991
   5168796.291 3                  25668541.845                    25668541.845
   6616345.335 3   5155592.147 2  23240566.479    23240571.372    23240566.479
   2602190.851 3   2027680.186 2  20481295.835    20481299.470    20481295.835
  -3036047.455 3  -2365746.937 2  23155205.331    23155209.681    23155205.331
  -9268504.173 3  -7222204.551 2  22687423.469    22687427.790    22687423.469
  11021803.049 2   8588400.816 1  25748645.755    25748658.719    25748645.755
  -3316324.358 3  -2584144.583 1  24537674.698    24537684.972    24537674.698
  -9138075.135 3  -7107386.161 2  19800835.188    19800839.084    19800835.188
   2509629.701 3   1951933.767 2  19761474.112    19761477.091    19761474.112
  11532177.432 3   8969473.159 2  23857453.346    23857458.273    23857453.346
 03  9 24 15 48 30.0000000  0 12G 5G14G23G 7G 9G 4G30G26G24R17R24R23
  -6311625.764 3  -4918147.806 2  20679450.587    20679454.250    20679450.587
  -3674054.046 3  -2862897.690 2  23112902.706    23112905.911    23112902.706
   5238524.382 2                  25681810.764                    25681810.764
   6700542.130 3   5221200.032 2  23256588.461    23256593.469    23256588.461
   2654248.457 3   2068244.532 2  20491201.966    20491205.487    20491201.966
  -3091609.681 3  -2409042.133 2  23144630.627    23144637.237    23144630.627
  -9362157.382 3  -7295181.028 2  22669601.366    22669605.830    22669601.366
  11135093.087 3   8676678.580 1  25770204.631    25770218.883    25770204.631
  -3412566.078 3  -2659138.007 1  24519360.412    24519369.369    24519360.412
  -9206120.108 3  -7160310.001 2  19788123.894    19788127.618    19788123.894
   2569036.187 3   1998138.808 2  19772579.444    19772582.481    19772579.444
  11660495.811 3   9069276.502 2  23881373.344    23881377.813    23881373.344
 03  9 24 15 49  0.0000000  0 12G 5G14G23G 7G 9G 4G30G26G24R17R24R23
  -6360027.352 3  -4955863.319 2  20670240.016    20670243.909    20670240.016
  -3723865.139 3  -2901711.530 2  23103423.445    23103427.366    23103423.445
                                  25695125.397
   6784987.957 3   5287001.945 2  23272658.077    23272662.541    23272658.077
   2706799.152 3   2109193.099 2  20501202.153    20501205.587    20501202.153
  -3146684.137 3  -2451957.211 2  23134151.355    23134156.907    23134151.355
  -9455621.071 3  -7368009.823 2  22651816.427    22651820.433    22651816.427
  11248277.355 3   8764873.823 1  25791743.457    25791755.706    25791743.457
  -3508696.260 3  -2734044.543 1  24501066.498    24501074.597    24501066.498
  -9273535.216 3  -7212743.950 2  19775529.844    19775533.854    19775529.844
   2629047.853 3   2044814.534 2  19783798.263    19783801.414    19783798.263
  11788880.474 3   9169131.401 2  23905305.739    23905313.187    23905305.739
 03  9 24 15 49 30.0000000  0 12G 5G14G23G 7G 9G 4G30G26G24R17R24R23
  -6408068.499 3  -4993297.974 2  20661098.186    20661102.136    20661098.186
  -3773138.722 3  -2940106.521 2  23094047.681    23094050.543    23094047.681
   5378686.014 3   4195378.557 1  25708484.406    25708495.939    25708484.406
   6869672.647 3   5352990.004 2  23288772.555    23288778.936    23288772.555
   2759833.489 3   2150518.539 2  20511294.219    20511297.796    20511294.219
  -3201276.811 3  -2494496.880 2  23123763.169    23123767.977    23123763.169
  -9548902.355 3  -7440696.500 2  22634065.104    22634069.197    22634065.104
  11361345.400 3   8852978.608 1  25813261.586    25813270.057    25813261.586
  -3604720.168 3  -2808868.253 1  24482794.626    24482803.069    24482794.626
  -9340325.557 3  -7264691.968 2  19763052.735    19763056.917    19763052.735
   2689653.270 3   2091952.075 2  19795127.945    19795130.695    19795127.945
  11917320.051 3   9269028.999 2  23929248.029    23929253.701    23929248.029
 03  9 24 15 50  0.0000000  0 12G 5G14G23G 7G 9G 4G30G26G24R17R24R23
  -6455740.726 3  -5030445.148 2  20652026.256    20652030.119    20652026.256
  -3821865.364 3  -2978075.314 2  23084774.642    23084778.334    23084774.642
   5449113.614 3                  25721884.791                    25721884.791
   6954601.835 3   5419168.580 2  23304934.938    23304939.975    23304934.938
   2813358.317 3   2192226.182 2  20521479.729    20521483.392    20521479.729
  -3255377.462 3  -2536653.163 2  23113467.670    23113472.421    23113467.670
  -9641992.237 3  -7513234.031 2  22616350.916    22616355.609    22616350.916
  11474302.736 3   8940997.127 1  25834756.691    25834771.458    25834756.691
  -3700626.996 3  -2883600.758 1  24464544.788    24464550.226    24464544.788
  -9406482.174 3  -7316147.089 2  19750693.841    19750697.623    19750693.841
   2750857.178 3   2139555.108 2  19806569.616    19806572.538    19806569.616
  12045819.866 3   9368973.526 2  23953204.224    23953209.667    23953204.224
 03  9 24 15 50 30.0000000  0 12G 5G14G23G 7G 9G 4G30G26G24R17R24R23
  -6503039.736 3  -5067301.509 2  20643025.630    20643029.436    20643025.630
  -3870039.437 3  -3015613.521 2  23075607.560    23075611.137    23075607.560
   5519775.191 3                  25735333.210                    25735333.210
   7039777.006 3   5485538.829 2  23321143.187    23321148.567    23321143.187
   2867376.176 3   2234317.990 2  20531758.967    20531762.630    20531758.967
  -3308980.115 3  -2578421.390 2  23103266.797    23103270.889    23103266.797
  -9734886.037 3  -7585618.770 2  22598674.062    22598676.466    22598674.062
  11587150.982 3   9028930.562 1  25856230.149    25856240.538    25856230.149
  -3796410.258 3  -2958236.975 2  24446317.453    24446324.293    24446317.453
  -9471999.811 3  -7367105.222 2  19738454.984    19738458.765    19738454.984
   2812660.083 3   2187624.029 2  19818122.794    19818125.716    19818122.794
  12174380.828 3   9468965.532 2  23977169.556    23977174.426    23977169.556
 03  9 24 15 51  0.0000000  0 12G 5G14G23G 7G 9G 4G30G26G24R17R24R23
  -6549972.163 3  -5103872.220 2  20634094.664    20634098.556    20634094.664
  -3917667.023 3  -3052725.912 2  23066544.190    23066548.139    23066544.190
   5590660.455 2                  25748825.411                    25748825.411
   7125188.749 3   5552093.409 2  23337396.390    23337400.825    23337396.390
   2921878.460 3   2276787.283 2  20542130.488    20542133.951    20542130.488
  -3362090.016 3  -2619805.650 2  23093160.910    23093165.432    23093160.910
  -9827590.115 3  -7657855.675 2  22581033.327    22581036.103    22581033.327
  11699880.035 3   9116771.109 1  25877684.202    25877694.562    25877684.202
  -3892074.351 3  -3032780.247 2  24428112.201    24428121.187    24428112.201
  -9536885.076 3  -7417571.518 2  19726334.030    19726337.811    19726334.030
   2875051.727 3   2236150.862 2  19829786.542    19829789.235    19829786.542
  12302991.932 3   9568996.556 2  24001145.324    24001150.939    24001145.324
 03  9 24 15 51 30.0000000  0 12G 5G14G23G 7G 9G 4G30G26G24R17R24R23
  -6596532.830 3  -5140153.249 2  20625234.410    20625238.302    20625234.410
  -3964741.866 3  -3089407.575 2  23057586.406    23057590.699    23057586.406
                                  25762353.997
   7210839.393 3   5618834.150 2  23353695.328    23353699.850    23353695.328
   2976868.582 3   2319636.708 2  20552594.604    20552598.210    20552594.604
  -3414700.135 3  -2660800.488 2  23083149.257    23083153.836    23083149.257
  -9920098.948 3  -7729940.445 2  22563429.447    22563433.797    22563429.447
  11812492.692 3   9204521.032 1  25899113.332    25899118.112    25899113.332
  -3987611.598 3  -3107224.729 2  24409933.236    24409941.106    24409933.236
  -9601131.503 3  -7467540.945 2  19714333.212    19714337.394    19714333.212
   2938033.205 3   2285136.447 2  19841560.096    19841562.789    19841560.096
  12431655.186 3   9669068.148 2  24025130.877    24025135.804    24025130.877
 03  9 24 15 52  0.0000000  0 12G 5G14G23G 7G 9G 4G30G26G24R17R24R23
  -6642729.300 3  -5176150.488 2  20616443.678    20616447.484    20616443.678
  -4011270.553 3  -3125663.689 2  23048732.486    23048736.292    23048732.486
                                  25775925.006
   7296718.663 3   5685753.030 2  23370037.892    23370043.129    23370037.892
   3032337.150 3   2362858.952 2  20563149.831    20563153.379    20563149.831
  -3466816.165 3  -2701410.318 2  23073232.259    23073236.952    23073232.259
 -10012419.339 3  -7801878.372 2  22545861.006    22545864.183    22545861.006
  11924979.023 3   9292172.484 1  25920515.685    25920523.698    25920515.685
  -4083027.120 3  -3181574.358 2  24391774.931    24391782.715    24391774.931
  -9664746.762 3  -7517019.450 2  19702447.796    19702451.864    19702447.796
   3001593.275 3   2334572.043 2  19853441.879    19853444.973    19853441.879
  12560359.211 3   9769171.442 2  24049121.633    24049126.331    24049121.633
 03  9 24 15 52 30.0000000  0 13G 5G14G23G 7G 9G 4G30G26G24R17R18R24
                                R23
  -6688550.624 3  -5211855.407 2  20607724.172    20607727.978    20607724.172
  -4057241.095 3  -3161484.858 2  23039984.486    23039987.205    23039984.486
                                  25789536.435
   7382834.886 3   5752856.567 2  23386424.724    23386429.504    23386424.724
   3088293.152 3   2406461.017 2  20573797.776    20573801.582    20573797.776
  -3518425.895 3  -2741625.638 2  23063411.526    23063416.191    23063411.526
 -10104539.921 3  -7873660.611 2  22528331.037    22528334.500    22528331.037
  12037347.269 3   9379731.802 1  25941900.408    25941909.336    25941900.408
  -4178307.844 3  -3255818.937 2  24373643.190    24373652.949    24373643.190
  -9727718.195 3  -7565997.206 2  19690684.166    19690688.234    19690684.166
          .722 2          .645 2  24574493.502    24574505.190    24574493.502
   3065739.277 3   2384463.373 2  19865433.099    19865436.365    19865433.099
  12689111.808 3   9869312.530 2  24073123.482    24073126.747    24073123.482
 03  9 24 15 53  0.0000000  0 13G 5G14G23G 7G 9G 4G30G26G24R17R18R24
                                R23
  -6734000.567 3  -5247270.932 2  20599075.358    20599078.992    20599075.358
  -4102656.567 3  -3196873.523 2  23031341.729    23031345.192    23031341.729
                                  25803195.185
   7469181.212 3   5820139.414 2  23402855.166    23402861.061    23402855.166
   3144730.952 3   2450438.503 2  20584537.622    20584541.400    20584537.622
  -3569531.419 3  -2781448.060 2  23053686.065    23053690.844    23053686.065
 -10196464.222 3  -7945289.891 2  22510838.486    22510841.290    22510838.486
  12149590.743 2   9467194.089 1  25963258.857    25963271.650    25963258.857
  -4273455.503 3  -3329959.780 2  24355536.707    24355545.636    24355536.707
  -9790048.970 3  -7614476.673 2  19679040.433    19679044.329    19679040.433
   -128453.890 2    -99908.053 2  24550540.514    24550549.795    24550540.514
   3130463.314 3   2434804.280 2  19877532.568    19877535.948    19877532.568
  12817905.426 3   9969485.516 2  24097132.967    24097139.326    24097132.967
 03  9 24 15 53 30.0000000  0 13G 5G14G23G 7G 9G 4G30G26G24R17R18R24
                                R23
  -6779076.623 3  -5282395.112 2  20590497.641    20590501.619    20590497.641
  -4147513.322 3  -3231826.825 2  23022807.331    23022810.479    23022807.331
                                  25816893.831
   7555757.592 3   5887601.520 2  23419331.605    23419335.039    23419331.605
   3201651.274 3   2494791.983 2  20595369.142    20595373.063    20595369.142
  -3620128.668 3  -2820874.442 2  23044058.158    23044062.250    23044058.158
 -10288189.203 3  -8016763.875 2  22493384.106    22493388.141    22493384.106
  12261709.206 2                  25984594.181                    25984594.181
  -4368465.009 3  -3403993.014 2  24337459.031    24337467.388    24337459.031
  -9851736.501 3  -7662455.853 2  19667516.828    19667520.839    19667516.828
   -256845.396 2   -199767.745 2  24526596.471    24526607.414    24526596.471
   3195764.491 3   2485594.085 2  19889739.933    19889743.027    19889739.933
  12946739.823 3  10069690.247 2  24121148.905    24121152.514    24121148.905
 03  9 24 15 54 30.0000000  0  8G 5G14G23G 7G 9G 4R24R23
  -6868114.587 3  -5351775.328 2  20573554.062    20573558.212    20573554.062
  -4235554.630 3  -3300430.396 2  23006052.806    23006054.924    23006052.806
                                  25844406.800
   7729582.208 3   6023049.265 2  23452408.756    23452414.222    23452408.756
   3316924.760 3   2584615.433 2  20617305.137    20617308.886    20617305.137
  -3719799.103 3  -2898539.584 2  23025091.258    23025094.520    23025091.258
   3328074.871 3   2588502.153 2  19914473.881    19914476.975    19914473.881
  13204507.773 3  10270176.799 2  24169202.439    24169207.652    24169202.439
 03  9 24 15 55  0.0000000  0 12G 5G14G23G 7G 9G 4G30G24R17R18R24R23
  -6912072.335 3  -5386028.106 2  20565189.111    20565193.347    20565189.111
  -4278733.318 3  -3334076.115 2  22997835.782    22997839.531    22997835.782
                                  25858218.891
   7816829.012 3   6091033.789 2  23469011.608    23469014.899    23469011.608
   3375278.461 3   2630085.822 2  20628409.349    20628413.327    20628409.349
  -3768865.000 3  -2936772.678 2  23015753.703    23015759.398    23015753.703
 -10562174.033 3  -8230258.465 2  22441246.131    22441250.137    22441246.131
  -4652652.531 3  -3625437.440 2  24283381.822    24283386.887    24283381.822
 -10032939.822 3  -7803391.689 2  19633666.637    19633671.106    19633666.637
   -641628.644 3   -499042.467 2  24454841.120    24454851.146    24454841.120
   3395080.611 3   2640617.726 2  19926999.990    19927002.740    19926999.990
  13333438.903 3  10370456.733 2  24193236.552    24193239.474    24193236.552
 03  9 24 15 55 30.0000000  0 12G 5G14G23G 7G 9G 4G30G24R17R18R24R23
  -6955649.503 3  -5419984.339 2  20556896.797    20556900.774    20556896.797
  -4321343.107 3  -3367278.527 2  22989726.496    22989730.875    22989726.496
                                  25872071.917
   7904301.491 3   6159194.154 2  23485657.202    23485662.039    23485657.202
   3434113.768 3   2675931.500 2  20639605.573    20639609.179    20639605.573
  -3817409.756 3  -2974599.683 2  23006517.023    23006522.232    23006517.023
 -10653093.651 3  -8301104.881 2  22423944.744    22423948.750    22423944.744
  -4747082.999 3  -3699019.543 2  24265408.821    24265418.380    24265408.821
 -10092042.138 3  -7849360.139 2  19622625.600    19622629.496    19622625.600
   -769745.389 3   -598688.494 2  24430950.683    24430959.219    24430950.683
   3462654.790 3   2693175.407 2  19939632.188    19939635.626    19939632.188
  13462403.216 3  10470762.464 2  24217278.251    24217281.172    24217278.251
 03  9 24 15 56  0.0000000  0 12G 5G14G23G 7G 9G 4G30G24R17R18R24R23
  -6998830.714 3  -5453632.029 2  20548679.770    20548683.519    20548679.770
  -4363367.964 3  -3400025.176 2  22981730.614    22981733.561    22981730.614
                                  25885970.509
   7992012.384 3   6227540.303 2  23502347.322    23502351.615    23502347.322
   3493444.316 3   2722163.064 2  20650895.867    20650899.387    20650895.867
  -3865416.410 3  -3012007.384 2  22997381.101    22997387.282    22997381.101
 -10743789.480 3  -8371776.912 2  22406685.674    22406690.024    22406685.674
  -4841341.741 3  -3772467.812 2  24247472.407    24247482.051    24247472.407
 -10150475.781 3  -7894808.508 2  19611709.792    19611713.860    19611709.792
   -897769.310 3   -698262.349 2  24407075.612    24407084.722    24407075.612
   3530809.431 3   2746184.564 2  19952372.855    19952376.235    19952372.855
  13591413.418 3  10571103.893 2  24241326.231    24241330.127    24241326.231
 03  9 24 15 57  0.0000000  0 10G14G 7G 9G 4G30G24R17R18R24R23
  -4445745.843 3  -3464215.722 2  22966053.959    22966057.794    22966053.959
   8168051.759 3   6364713.833 2  23535848.748    23535852.240    23535848.748
   3613496.831 3   2815710.442 2  20673740.933    20673744.739    20673740.933
  -3959895.841 3  -3085627.595 2  22979401.338    22979406.518    22979401.338
 -10924594.502 3  -8512663.872 2  22372279.287    22372283.236    22372279.287
  -5029421.539 3  -3919023.333 2  24211679.090    24211687.046    24211679.090
 -10265420.760 3  -7984210.104 2  19590236.917    19590240.641    19590236.917
  -1153618.227 3   -897255.261 2  24359363.953    24359371.974    24359363.953
   3668755.693 3   2853476.081 2  19978160.769    19978163.290    19978160.769
  13849469.902 3  10771814.734 2  24289431.506    24289435.058    24289431.506
 03  9 24 15 57 30.0000000  0 10G14G 7G 9G 4G30G24R17R18R24R23
  -4486087.988 3  -3495651.141 2  22958378.053    22958380.715    22958378.053
   8256384.188 3   6433544.313 2  23552657.034    23552660.325    23552657.034
   3674224.057 3   2863030.335 2  20685297.082    20685300.946    20685297.082
  -4006356.489 3  -3121830.641 2  22970560.783    22970564.818    22970560.783
 -11014693.501 3  -8582870.847 2  22355134.287    22355137.864    22355134.287
  -5123228.584 3  -3992119.631 2  24193831.407    24193840.107    24193831.407
 -10321921.636 3  -8028155.199 2  19579682.156    19579686.110    19579682.156
  -1281429.507 3   -996663.802 2  24335530.456    24335537.962    24335530.456
   3738548.870 3   2907759.652 2  19991208.138    19991210.774    19991208.138
  13978518.447 3  10872185.921 2  24313487.687    24313492.958    24313487.687
 03  9 24 15 58  0.0000000  0 11G 5G14G 7G 9G 4G30G24R17R18R24R23
  -7167856.673 3  -5585340.536 2  20516515.106    20516519.084    20516515.106
  -4525860.523 3  -3526642.733 2  22950808.464    22950812.986    22950808.464
   8344925.501 3   6502537.527 2  23569505.106    23569509.227    23569505.106
   3735420.208 3   2910715.630 2  20696942.482    20696946.174    20696942.482
  -4052291.841 3  -3157624.370 2  22961819.353    22961825.735    22961819.353
 -11104585.433 3  -8652916.465 2  22338029.127    22338032.590    22338029.127
  -5216872.773 3  -4065089.056 2  24176010.901    24176020.947    24176010.901
 -10377770.737 3  -8071593.371 2  19569249.059    19569253.126    19569249.059
  -1409160.052 3  -1096009.539 2  24311709.034    24311718.831    24311709.034
   3808888.043 3   2962467.892 2  20004357.135    20004359.714    20004357.135
  14107580.317 3  10972567.522 2  24337548.237    24337554.138    24337548.237
